GFSGBSN_850_dewp_000.txt.gz
Dewpoint
1 1 -0 -1 0 0 0 1 1 2 1 1 -0 -1 -2 -3 -4 -5 -6 -6 -6 -5 -4 -2 -5 -9 -5 -4 -4 -4 -5 -7 -6 -7 -7 -7 -8 -7 -9 -9 -10 -9 -8 -7 -8 -9 -8
3 1 1 1 1 0 1 1 1 1 0 -0 -1 -1 -2 -3 -5 -5 -6 -7 -6 -4 -2 -2 -6 -7 -4 -5 -5 -5 -5 -7 -7 -5 -7 -6 -6 -6 -6 -6 -8 -5 -6 -6 -6 -6 -6
2 2 2 1 1 0 1 1 1 -0 -1 -2 -3 -4 -4 -5 -4 -5 -7 -6 -5 -3 -3 -4 -6 -7 -5 -4 -5 -9 -7 -7 -10 -7 -5 -8 -7 -6 -5 -5 -5 -6 -6 -6 -6 -6 -5
3 3 2 1 0 -0 1 1 0 -1 -2 -3 -3 -4 -4 -3 -4 -8 -7 -7 -3 -3 -2 -3 -5 -6 -5 -6 -7 -10 -10 -9 -9 -6 -7 -8 -8 -6 -5 -5 -8 -8 -8 -7 -5 -6 -4
3 3 2 1 -0 -0 0 1 0 0 1 -0 -0 -1 -1 -2 -5 -7 -8 -4 -4 -2 -3 -3 -4 -4 -6 -6 -5 -10 -10 -7 -5 -5 -6 -9 -7 -5 -7 -6 -8 -8 -10 -9 -5 -5 -4
4 2 2 0 -0 -1 0 0 1 1 0 -1 -0 -1 -2 -3 -4 -6 -5 -4 -3 -3 -4 -4 -5 -6 -6 -5 -7 -9 -6 -6 -5 -7 -6 -6 -6 -7 -8 -10 -9 -7 -9 -8 -7 -6 -5
4 3 2 0 -1 -1 -0 0 1 1 0 0 -0 -1 -1 -2 -3 -4 -4 -3 -4 -3 -4 -4 -5 -6 -5 -5 -5 -5 -8 -9 -8 -6 -6 -5 -7 -4 -4 -5 -6 -6 -6 -6 -7 -4 -1
3 3 2 0 -1 -1 -1 -0 0 -0 -0 -1 -1 1 2 -3 -4 -3 -2 1 -4 -4 -5 -5 -5 -3 -3 -4 -5 -4 -7 -7 -6 -6 -5 -7 -4 -5 -4 -4 -5 -5 -5 -5 -4 -3 -1
2 2 2 1 -1 -1 -2 -1 -0 -1 -1 -1 1 -1 1 2 1 -1 -3 -4 -6 -5 -5 -4 -5 -5 -5 -3 -2 -3 -4 -5 -7 -6 -5 -5 -5 -6 -4 -2 -2 -3 -4 -1 -1 -2 -2
0 1 2 1 -0 -0 -2 -2 -1 -1 -1 -2 -0 -0 -2 0 -0 -3 -3 -3 -4 -3 -3 -4 -5 -4 -4 -4 -3 -2 -3 -3 -4 -4 -5 -4 -4 -2 -2 -1 -1 -2 -2 -0 -0 -0 -1
-1 -1 1 1 -0 -0 -1 -3 -2 -1 -2 -2 -2 -1 -1 -2 -1 -0 -3 -3 -1 3 2 -4 -4 -3 -2 -3 -3 -2 -3 -2 -2 -2 -3 -3 -2 -1 -1 -1 -0 1 0 0 0 0 1
-3 -2 -0 1 -0 -1 -1 -1 -3 -3 -2 -2 -2 -2 -2 -3 -2 -2 -4 -5 2 5 2 -2 -4 -2 -2 -2 -2 -2 -2 -3 -2 -2 -3 -2 -2 -1 -1 -2 -1 -0 0 1 1 2 4
-3 -3 -2 0 0 -1 -1 -1 -2 -3 -3 -2 -2 -2 -2 -3 -1 -4 -5 -2 2 3 -1 -2 -3 -2 -1 -0 -1 -1 -0 1 0 -1 1 -1 -0 -1 -0 -1 -0 -1 -0 2 6 5 4
-2 -3 -3 -2 1 -0 1 -1 -1 -1 -6 -3 -2 -2 -2 -2 -2 -4 -5 4 3 2 -0 -3 -2 -1 0 -0 -0 -0 -1 1 0 -0 0 1 2 1 0 1 1 1 2 5 5 4 2
-2 -3 -4 -3 -0 -0 1 -0 1 1 -3 -5 -3 -2 -2 0 -4 -3 2 7 4 -0 -3 -2 -2 -1 1 0 -0 0 1 1 1 1 2 2 2 -0 -0 -0 0 1 3 1 5 5 7
-2 -4 -5 -3 -2 0 1 1 1 2 -1 -2 -2 -2 -2 -3 -3 -1 6 1 0 -1 -1 -3 -0 0 1 1 1 1 2 1 1 1 0 2 3 0 -0 0 0 1 1 3 2 7 1
-2 -4 -6 -4 -3 -0 -0 2 -0 3 -0 -1 -2 0 -1 -0 -1 4 5 2 0 1 1 0 1 2 2 2 1 2 2 1 1 1 0 -0 1 0 1 2 2 2 3 2 1 3 3
-2 -3 -6 -6 -4 -2 -1 1 0 2 4 2 2 3 2 1 3 1 2 0 1 1 1 1 2 2 2 3 3 3 3 2 2 1 1 1 2 -0 -1 1 1 1 2 1 1 2 3
-2 -3 -5 -6 -6 -4 -1 -1 3 1 4 4 4 4 4 3 8 7 2 1 1 1 1 1 2 2 2 3 4 3 3 3 3 1 2 2 3 -1 0 2 1 2 1 1 2 3 5
-2 -2 -3 -5 -7 -6 -3 -2 2 4 4 1 2 9 2 1 2 2 2 2 2 1 1 1 2 1 2 3 3 4 4 3 3 2 1 2 2 1 -3 -3 -1 -1 -2 -0 1 5 3
-1 -2 -3 -4 -7 -7 -5 -2 -2 2 0 -1 1 5 3 7 4 2 2 1 2 2 1 1 1 1 2 4 3 4 3 2 2 2 3 3 2 2 1 -0 -1 0 0 -1 1 2 4
-2 -2 -3 -4 -6 -8 -7 -5 -2 -0 1 -2 4 4 3 3 2 2 3 2 1 1 1 1 1 1 -1 0 -2 1 -1 -0 -1 2 2 2 3 4 3 1 -0 2 0 -0 1 1 1
-2 -3 -3 -4 -6 -7 -7 -7 -2 -2 -0 -0 0 0 3 1 2 4 3 2 1 1 2 1 1 1 3 0 0 2 3 3 2 1 3 4 5 5 7 2 3 6 2 -0 -1 0 0
-2 -3 -4 -4 -6 -7 -7 -7 -5 -1 -1 -0 -0 -0 1 6 3 2 1 1 1 1 2 2 1 4 2 1 2 2 1 2 3 3 3 5 6 5 8 6 7 1 -2 -2 -0 -1 -2
-0 -2 -3 -4 -5 -7 -7 -7 -6 -2 -1 -1 -0 -2 -1 5 3 1 1 2 2 2 2 2 3 2 4 3 4 7 3 5 4 2 3 3 6 6 6 4 2 0 -1 -0 -0 0 -1
2 -1 -2 -3 -5 -6 -7 -7 -6 -2 0 0 1 -2 -4 1 6 1 2 2 4 4 4 5 3 3 3 5 6 8 5 2 1 2 2 2 3 6 6 6 6 1 -2 -1 -0 3 2
3 1 -1 -2 -3 -5 -5 -6 -5 -1 1 2 2 0 -2 -3 0 1 2 3 2 3 4 4 4 3 4 6 7 9 5 2 3 6 5 5 4 5 5 6 4 -0 -1 -0 5 6 3
4 3 2 0 -1 -3 -4 -4 -4 -1 1 3 2 1 -1 -2 0 0 -0 -0 1 2 6 4 5 5 6 6 6 6 6 5 3 1 3 3 6 6 5 6 6 -1 -0 5 3 3 3
5 4 3 2 1 -1 -2 -3 -3 -1 1 2 2 1 0 -0 1 1 -0 -1 -1 -0 1 4 4 4 5 6 5 5 6 4 7 5 1 3 2 2 3 4 -0 0 1 2 2 3 4

GFSGBSN_850_dewp_003.txt.gz
Dewpoint
-1 -0 -0 0 1 1 1 1 1 2 1 1 0 -1 -2 -3 -4 -5 -6 -6 -6 -4 -4 -2 -10 -10 -8 -2 -6 -5 -7 -7 -6 -5 -8 -9 -10 -12 -12 -13 -14 -13 -13 -14 -14 -13 -12
1 0 1 1 1 1 1 1 2 1 1 0 -0 -1 -1 -2 -3 -5 -6 -6 -5 -4 -1 -4 -12 -10 -6 -5 -6 -6 -6 -7 -7 -8 -10 -10 -10 -11 -13 -14 -12 -11 -10 -9 -8 -8 -8
1 1 2 2 1 1 1 1 1 0 -1 -2 -2 -2 -2 -3 -5 -5 -6 -5 -4 -2 -3 -6 -9 -8 -2 -5 -6 -7 -7 -7 -7 -6 -8 -7 -9 -10 -10 -7 -8 -9 -8 -8 -8 -7 -7
1 3 2 1 1 1 1 2 1 -1 -2 -3 -4 -4 -4 -5 -5 -6 -6 -5 -2 -2 -3 -6 -8 -7 -4 -6 -7 -8 -9 -9 -8 -5 -5 -6 -8 -7 -8 -7 -9 -9 -8 -6 -7 -7 -6
3 3 2 1 1 1 1 1 1 1 1 -0 -2 -3 -3 -5 -7 -6 -6 -3 -3 -2 -2 -4 -5 -2 -7 -8 -7 -7 -8 -9 -7 -5 -7 -8 -7 -8 -7 -8 -8 -9 -7 -9 -5 -7 -7
4 3 2 2 1 0 1 1 2 1 1 1 -0 -1 -2 -6 -6 -6 -4 -3 -2 -3 -4 -4 -3 -5 -8 -7 -7 -8 -7 -6 -6 -5 -6 -6 -7 -7 -10 -10 -6 -8 -11 -11 -10 -7 -9
4 3 2 2 0 -0 0 1 2 1 1 1 -0 -1 -2 -4 -5 -5 -3 -3 -2 -2 -3 -4 -6 -7 -8 -8 -8 -7 -6 -6 -6 -6 -5 -7 -7 -5 -5 -6 -8 -9 -9 -9 -8 -7 -6
4 3 3 1 0 -1 -0 1 1 1 1 0 0 -1 -2 -4 -5 -3 -2 3 3 -3 -5 -5 -5 -4 -5 -5 -7 -7 -6 -7 -7 -7 -8 -9 -4 -6 -5 -5 -5 -6 -6 -6 -6 -6 -5
3 3 3 2 0 -1 -1 -0 0 0 -0 -1 2 2 -0 -2 -3 -2 5 4 -5 -3 -5 -5 -4 -5 -5 -5 -4 -4 -5 -8 -9 -10 -10 -5 -4 -5 -4 -4 -3 -4 -4 -2 -2 -4 -6
1 2 3 2 -0 -0 -2 -1 -0 -0 -1 -1 -1 1 1 -0 0 3 4 -5 -5 -3 -3 -6 -6 -4 -5 -4 -4 -3 -3 -5 -7 -8 -7 -4 -4 -4 -3 -2 -2 -2 -3 -2 -2 -3 -2
-0 0 2 2 -0 -1 -1 -2 -1 -1 -1 -2 -0 -1 -1 0 2 -0 0 -4 -6 1 3 -5 -5 -3 -5 -3 -4 -3 -3 -5 -6 -5 -3 -2 -2 -1 -1 -1 -2 0 -1 -1 -1 -2 -2
-2 -1 1 2 0 -1 -1 -3 -2 -1 -1 -2 -1 -1 -1 -1 3 0 -3 -3 -5 5 3 -3 -5 -3 -3 -3 -3 -3 -3 -3 -2 -3 -4 -3 -3 -2 -1 -2 -2 -1 -1 -1 0 -0 2
-3 -2 -1 1 1 -0 -0 -1 -3 -2 -2 -2 -2 -2 -1 -0 2 -3 -4 -1 -1 5 -3 -3 -3 -3 -2 -2 -2 -2 -1 -0 -1 0 0 -2 -1 -2 -2 -1 -1 -2 -0 4 5 4 4
-2 -2 -3 -1 1 1 1 -1 -2 -4 -2 -2 -2 -2 -1 -3 -3 -4 -2 1 5 -1 -3 -5 -4 -3 -1 -2 -1 -2 -2 -0 -1 -1 -2 -0 3 -1 -2 -0 0 -1 1 6 4 4 2
-2 -3 -3 -2 1 1 2 -1 -1 -4 -4 -2 -2 -2 2 -2 -3 -4 1 6 3 -2 -4 -3 -3 -2 -1 -1 -2 -1 0 -1 -1 -0 1 1 1 -1 -1 -1 -1 0 2 -1 4 5 6
-2 -4 -4 -3 -0 1 2 -0 2 -3 -5 -3 1 -0 2 -1 -4 -1 5 4 0 -2 -5 -4 -1 -1 -0 -1 -0 -0 0 -0 -1 -2 -3 -1 3 -2 -2 -1 -1 1 -1 3 1 6 1
-2 -4 -5 -3 -2 0 1 0 3 -1 -3 -3 1 -1 3 -2 -3 2 6 2 -1 -1 -2 -1 -1 -0 0 1 -1 1 1 0 -1 -1 -2 -3 -1 -0 -2 0 1 1 2 0 -2 1 3
-2 -4 -6 -5 -3 -0 0 1 3 -0 -2 -1 2 1 -2 -1 2 4 3 -0 -1 -0 1 0 -0 -0 1 1 2 2 2 2 1 -0 1 -0 0 0 -3 -0 -0 -0 0 -1 1 1 1
-2 -3 -5 -6 -5 -2 -1 3 0 4 1 5 1 3 1 1 8 8 2 1 0 0 -0 0 2 1 1 2 3 2 2 2 2 1 2 0 2 1 -1 2 0 0 -0 -2 1 2 4
-1 -2 -4 -6 -7 -4 -1 2 2 3 4 4 2 7 3 4 3 1 2 1 2 1 1 1 1 1 1 2 1 3 3 2 3 2 1 1 0 0 1 -2 -4 -2 -3 -4 -1 3 3
-1 -2 -3 -5 -8 -6 -3 -1 3 3 4 1 4 5 4 6 4 1 1 1 1 1 0 -0 1 1 2 3 2 2 1 2 1 1 2 1 2 1 -0 -3 -4 -3 -2 -3 -3 -2 3
-1 -2 -3 -4 -6 -8 -6 -2 -1 1 -1 2 2 3 3 4 2 2 2 1 0 -0 -0 0 1 -0 -1 2 -3 -0 -2 -2 -1 1 1 1 4 3 2 -2 -3 -1 -3 -4 -3 -1 -1
-2 -2 -3 -3 -5 -8 -8 -5 -2 -1 0 3 -0 2 3 2 3 3 3 1 -0 0 2 -1 -1 -2 2 -1 1 1 2 1 0 1 2 3 4 4 6 3 3 6 2 -2 -3 -3 -0
-2 -3 -3 -3 -5 -7 -8 -7 -2 -2 -1 1 1 3 5 6 4 2 0 0 0 -0 1 -0 -2 2 3 2 2 2 2 2 2 2 2 6 5 6 8 6 9 1 -3 -3 -2 -2 -3
-1 -3 -3 -4 -5 -7 -8 -8 -6 -1 -1 -1 -1 2 2 10 2 1 1 0 1 1 1 2 3 3 3 2 4 6 4 5 4 1 1 2 5 6 8 4 2 0 -1 -1 -0 1 -3
0 -2 -3 -4 -5 -6 -8 -7 -6 -1 -1 -0 -1 -3 2 2 7 1 1 2 3 4 4 4 5 5 4 5 6 8 5 1 2 2 1 3 5 6 7 7 7 2 -2 -1 -1 3 2
2 -0 -2 -3 -4 -6 -7 -7 -6 -3 1 1 0 -2 2 5 3 1 3 3 2 2 3 4 4 5 5 7 9 9 5 1 2 6 5 5 5 7 5 7 3 -1 -1 -0 4 5 3
3 1 -1 -2 -3 -4 -5 -6 -5 -3 1 2 1 -1 2 3 4 3 2 3 3 1 7 4 5 5 7 7 8 7 8 4 3 -0 3 5 7 6 6 7 6 -1 -1 5 2 2 3
4 3 2 0 -1 -2 -4 -4 -5 -4 -1 2 5 1 -1 3 5 -1 -1 1 2 2 2 5 3 4 4 7 7 7 8 6 6 5 -1 3 2 3 3 3 -2 1 3 3 3 3 3

GFSGBSN_850_dewp_006.txt.gz
Dewpoint
-3 -3 -2 -2 -1 -0 -0 0 1 1 1 1 1 0 -0 -2 -5 -6 -7 -8 -6 -6 -4 -4 -7 -6 -7 -3 -5 -8 -6 -7 -9 -10 -5 -8 -8 -10 -12 -13 -14 -13 -15 -15 -16 -15 -13
-2 -1 -1 -1 0 -0 0 0 1 1 1 0 0 0 -1 -3 -5 -6 -7 -7 -6 -4 -3 -3 -9 -7 -8 0 -6 -7 -7 -7 -8 -9 -10 -10 -11 -12 -14 -15 -14 -14 -14 -14 -13 -11 -11
0 -0 -0 0 0 0 0 1 1 0 -0 -1 -0 -1 -1 -2 -5 -6 -7 -5 -5 -2 -2 -5 -11 -10 -3 -2 -8 -8 -8 -8 -8 -7 -8 -8 -9 -12 -12 -10 -11 -12 -10 -10 -10 -8 -9
2 1 1 1 0 0 1 1 1 -0 -1 -2 -3 -2 -3 -3 -6 -7 -6 -5 -3 -2 -3 -6 -14 -11 0 -5 -7 -9 -9 -10 -10 -7 -7 -8 -8 -7 -7 -10 -12 -11 -9 -7 -9 -9 -7
2 2 2 0 0 0 1 1 1 1 1 -1 -3 -4 -4 -5 -6 -6 -5 -4 -2 -1 -3 -8 -10 -7 -2 -8 -7 -8 -9 -9 -9 -6 -7 -8 -7 -10 -10 -10 -8 -8 -7 -6 -5 -9 -7
3 2 2 0 0 0 1 1 2 2 2 1 -0 -2 -3 -5 -6 -6 -4 -2 -1 -2 -4 -5 -3 2 -7 -7 -7 -9 -8 -8 -7 -6 -7 -7 -7 -8 -8 -7 -4 -5 -8 -10 -10 -8 -11
3 3 2 0 0 -0 0 1 2 2 2 1 0 -1 -4 -5 -5 -5 -3 -2 -2 -1 0 -4 -7 -7 -10 -11 -7 -8 -8 -7 -5 -6 -4 -8 -6 -3 -4 -6 -8 -9 -10 -10 -7 -7 -7
3 3 2 1 -0 -0 -0 1 1 1 2 1 0 -1 -2 -4 -4 -3 0 6 3 -2 -4 -6 -6 -6 -6 -6 -9 -10 -7 -6 -7 -6 -8 -10 -4 -6 -7 -8 -7 -8 -7 -7 -7 -7 -8
3 3 2 1 -0 -0 -1 0 0 1 0 0 1 -1 -3 -4 -3 -2 3 5 4 -3 -5 -5 -5 -6 -5 -5 -5 -6 -4 -8 -8 -7 -10 -2 -4 -7 -7 -5 -4 -5 -5 -1 -2 -4 -6
2 3 2 1 -0 0 -1 -1 -0 -0 -1 1 2 1 -2 -3 -2 3 4 1 3 -3 -3 -7 -6 -6 -6 -5 -5 -5 -5 -5 -9 -9 -7 -4 -6 -4 -4 -2 -3 -2 -2 -2 -3 -3 -2
1 1 2 1 -0 -0 -1 -1 -0 -1 -1 0 -0 1 1 -1 5 2 5 -5 -5 3 4 -6 -6 -4 -6 -4 -5 -4 -4 -5 -7 -6 -5 -2 -3 -2 -1 -2 -3 -0 -2 -2 -2 -2 -2
-1 -0 1 1 0 -0 -0 -2 -1 -1 -1 -1 -0 -1 -0 0 6 5 0 -5 -5 8 5 -4 -5 -5 -5 -5 -4 -4 -5 -3 -3 -5 -4 -3 -4 -2 -1 -3 -3 -2 -1 -1 -1 -0 6
-2 -2 -0 1 1 -0 -0 -1 -2 -1 -1 -2 -1 -1 1 5 6 -3 -5 -2 1 6 -4 -3 -3 -4 -4 -3 -3 -3 -2 -1 -1 -0 0 -2 -1 -2 -3 -0 -1 -3 0 7 10 9 8
-3 -2 -2 0 1 0 1 -1 -3 -2 -1 -2 -2 -1 -1 2 2 -3 -1 3 6 -2 -4 -7 -4 -3 -2 -3 -2 -2 -2 -1 -2 0 -2 0 4 -1 -3 -1 -1 -0 -0 9 7 9 6
-3 -2 -3 -1 1 1 2 -1 -2 -4 -2 -2 -2 -2 1 -2 -4 -4 5 7 4 -3 -4 -4 -4 -2 -1 -2 -2 -1 -1 -1 -2 -1 1 1 2 -2 -3 -3 -3 1 2 -2 4 6 7
-3 -3 -3 -2 0 1 2 -1 -1 -2 -3 -2 -1 2 2 -1 -6 -3 7 7 1 -3 -6 -5 -3 -2 -1 -2 -1 -1 -1 -1 -1 -2 -4 -3 3 -3 -4 -2 -1 -1 -3 3 6 8 3
-3 -3 -4 -3 -0 1 2 1 2 -3 -4 -2 2 -0 4 -4 -5 2 7 5 -1 -3 -2 -5 -3 -2 -1 -2 -2 -0 0 -0 -1 -1 -2 -2 -0 -0 -2 -0 -0 0 1 -0 -2 3 5
-3 -3 -5 -4 -2 1 2 1 3 -2 -3 1 2 2 2 -4 1 1 6 0 -2 -1 -0 -0 -1 -2 -1 -0 0 1 2 2 -0 -1 1 -2 -0 5 -2 -2 -2 -2 -1 -2 7 3 6
-2 -3 -5 -5 -3 -0 2 2 4 -1 -2 0 3 5 -2 -2 7 11 2 0 -1 -2 -2 -1 1 -0 0 1 3 1 3 2 1 2 3 1 3 6 2 2 -1 -2 -2 -2 2 4 4
-2 -2 -5 -6 -5 -2 0 3 3 -1 2 6 4 7 1 3 5 4 3 2 2 0 1 0 0 -0 1 2 1 2 4 2 2 2 -1 2 -0 0 3 -2 -4 -3 -4 -4 -3 7 5
-1 -2 -4 -6 -7 -4 -1 2 2 3 2 4 5 4 -0 5 4 2 1 0 2 2 -0 -0 0 -0 1 2 2 2 2 2 0 -1 1 1 3 1 -0 -3 -4 -4 -3 -4 -3 -2 2
-1 -2 -3 -4 -7 -7 -4 -1 2 2 3 2 5 3 3 3 1 1 2 1 0 -1 0 -0 0 0 0 4 -0 1 -1 -2 0 1 0 1 6 4 3 -2 -2 -1 -3 -3 -4 -4 -3
-1 -2 -2 -3 -6 -8 -6 -3 -1 1 0 4 2 2 3 3 3 4 4 1 -0 1 1 -1 -1 0 4 1 1 1 1 0 -1 1 2 4 6 6 7 3 4 7 4 -2 -3 -3 -2
-1 -2 -2 -3 -4 -7 -8 -6 -2 -1 1 4 4 3 6 8 5 2 2 -0 -0 1 0 -1 -1 4 2 1 2 2 2 2 1 2 2 6 6 7 8 7 8 1 -3 -3 -2 -3 -3
-1 -2 -3 -3 -4 -6 -8 -7 -3 -1 -1 -1 -0 5 4 8 5 2 1 0 0 0 -0 3 2 2 1 2 6 4 5 4 4 0 1 2 6 6 9 5 2 0 -1 -0 1 1 -2
-1 -2 -3 -4 -4 -5 -8 -8 -6 -1 -1 -1 -1 2 5 5 7 1 -0 1 4 5 5 5 5 4 3 6 8 7 7 2 4 2 1 3 6 8 6 6 6 2 -1 -1 -1 4 2
0 -2 -3 -4 -5 -5 -7 -8 -7 -2 -0 0 -2 -1 4 6 3 2 3 4 2 4 5 4 5 5 5 7 7 10 7 1 4 6 6 5 5 7 7 6 5 -1 -1 -0 4 5 3
1 -1 -2 -3 -5 -5 -6 -7 -7 -4 1 2 2 -1 4 5 5 4 3 2 2 2 8 4 6 6 9 7 8 9 8 7 5 1 5 5 7 6 5 6 5 -1 -1 3 4 3 3
3 1 -1 -2 -3 -4 -5 -6 -6 -5 -1 2 7 1 -0 5 5 3 3 3 3 4 3 4 3 6 6 8 8 8 8 6 7 7 -3 4 5 6 5 5 1 0 1 3 3 4 3

GFSGBSN_850_dewp_009.txt.gz
Dewpoint
-4 -4 -3 -2 -2 -1 -0 -1 -0 0 0 0 0 0 -1 -2 -5 -6 -7 -7 -9 -7 -6 -4 -5 -5 -5 -5 -3 -8 -6 -6 -11 -12 -9 -5 -4 -8 -8 -10 -13 -14 -15 -16 -17 -14 -11
-3 -2 -1 -1 -1 -0 -0 0 0 0 0 0 -0 -0 -1 -3 -5 -7 -7 -8 -7 -6 -4 -4 -5 -6 -6 1 -6 -7 -7 -7 -7 -7 -6 -6 -7 -9 -11 -13 -13 -14 -15 -16 -16 -12 -11
-3 -1 1 -0 1 -0 0 1 1 -0 -1 -1 -1 -1 -2 -3 -5 -7 -8 -7 -6 -4 -3 -3 -6 -7 -7 -6 -6 -8 -8 -8 -8 -7 -7 -9 -9 -10 -10 -9 -12 -14 -12 -13 -12 -10 -10
-1 1 1 1 1 0 0 1 0 -0 -2 -3 -2 -2 -3 -4 -6 -8 -7 -6 -5 -3 -2 -4 -8 -8 -9 -4 -7 -9 -9 -9 -11 -7 -7 -9 -9 -8 -9 -13 -12 -11 -9 -7 -8 -8 -9
-0 2 1 2 1 0 0 1 1 1 0 -1 -3 -3 -4 -5 -6 -6 -5 -5 -3 -2 -3 -6 -7 -8 -0 -7 -11 -7 -10 -9 -9 -7 -8 -9 -8 -8 -10 -9 -7 -7 -6 -4 -6 -8 -6
1 3 2 2 1 0 0 1 1 1 1 1 -2 -4 -5 -6 -6 -5 -5 -3 -1 -1 -3 -6 -4 3 -1 -6 -7 -8 -10 -9 -7 -7 -7 -8 -7 -6 -6 -5 -2 -4 -5 -4 -4 -8 -11
2 3 3 2 0 0 0 1 1 1 2 1 -1 -3 -5 -5 -5 -5 -3 -1 -2 -3 -1 -4 -5 -2 -10 -12 -8 -8 -9 -8 -5 -6 -4 -6 -2 -2 -5 -6 -7 -7 -6 -4 -5 -7 -8
3 3 3 2 0 0 -0 1 1 1 1 1 -0 -2 -4 -5 -5 -4 -2 3 5 3 -1 -2 -6 -7 -7 -6 -9 -8 -7 -6 -6 -3 -4 -5 -2 -6 -6 -4 -4 -6 -2 -0 -5 -6 -8
3 3 3 1 0 0 -0 0 0 1 1 1 0 -3 -5 -5 -4 -2 2 6 5 -1 -3 -5 -6 -6 -5 -5 -5 -7 -5 -5 -6 -4 -2 -1 -5 -7 -6 -1 -1 -1 -0 -1 -2 -4 -6
2 3 3 1 1 -0 -1 -0 -0 0 -0 2 2 -2 -5 -4 -3 -3 3 4 4 -4 -1 -5 -5 -7 -6 -6 -5 -6 -7 -5 -7 -3 -3 -4 -6 -3 -2 -1 -2 2 -0 -1 -2 -1 -1
2 2 2 1 1 -1 -1 -1 -0 -0 -1 1 2 1 -3 -2 5 4 5 0 -4 -2 5 -4 -4 -6 -6 -4 -5 -5 -9 -3 -4 -7 -2 -2 -1 0 0 -1 -2 1 -2 -1 -1 -0 -0
1 1 1 1 0 -1 -1 -2 -1 -1 -1 0 -0 1 0 1 6 4 2 -5 -6 9 4 -4 -5 -3 -5 -4 -4 -5 -5 -4 -4 -3 -3 -3 -3 -2 -2 -2 -3 -3 0 1 0 1 5
-0 -0 0 1 0 -1 -1 -2 -1 -1 -1 -1 -1 -1 3 5 7 -2 -5 -7 5 7 -1 -3 -2 -2 -3 -2 -2 -2 -1 -0 1 1 1 -1 -0 -2 -3 0 -1 -1 3 7 7 7 7
-1 -1 -1 0 0 -0 -1 -2 -3 -1 -1 -2 -1 -1 2 4 3 -3 -4 6 7 0 -3 -4 -3 -2 -1 -2 -2 -1 -0 1 -1 1 2 3 4 -1 -2 -1 -1 1 2 5 8 8 6
-2 -2 -2 -1 0 0 1 -1 -3 -2 -1 -2 -2 -1 -1 -1 -3 -3 4 8 7 1 -4 -3 -3 -0 -1 -2 -1 -0 0 -1 -1 -1 2 4 2 -2 -3 -3 -1 2 2 -2 5 5 5
-3 -2 -3 -2 0 1 1 -1 -2 -3 -2 -2 -2 -2 1 -3 -4 -4 8 8 4 -3 -5 -4 -1 -1 0 -1 -0 1 1 0 0 -1 -2 -1 2 -3 -4 -2 -1 -1 -3 4 4 5 4
-3 -3 -3 -2 -0 1 2 -0 -1 -3 -2 -2 -0 1 1 1 -7 1 8 8 -1 -2 -0 -0 0 -2 1 -1 -1 1 2 1 -0 -1 -2 1 3 -0 -2 -0 1 1 2 1 1 3 5
-3 -3 -4 -3 -1 1 2 1 2 -2 -3 -2 3 5 4 -1 1 5 6 4 -2 -1 -0 0 1 -1 1 -0 3 4 5 3 1 2 1 -1 2 3 1 -2 -3 -2 0 1 4 4 4
-3 -3 -5 -4 -2 1 2 2 3 -3 -3 -1 3 5 2 -1 4 5 5 1 -1 -0 -0 -1 1 2 1 3 4 5 5 2 2 2 3 2 2 5 4 3 -0 -2 -2 2 4 2 2
-3 -3 -5 -5 -3 -0 2 3 3 -3 -3 3 6 5 2 5 6 7 5 2 2 1 1 0 1 -0 2 2 2 5 5 3 1 -0 -1 2 1 2 4 0 -2 -2 -3 -2 3 4 4
-2 -3 -5 -6 -5 -2 1 3 2 -2 -1 4 5 5 -0 4 4 6 4 3 3 3 0 0 0 1 2 3 4 5 4 3 2 -1 1 2 5 3 1 -1 -2 -3 -2 -2 -2 -1 2
-2 -2 -4 -5 -7 -4 -1 2 3 -1 -1 4 6 6 -3 0 -1 4 5 3 4 2 2 2 1 1 3 3 4 4 3 3 3 1 2 3 5 2 2 1 1 1 -0 -1 -2 -2 -2
-2 -2 -3 -4 -7 -7 -4 -0 2 2 2 3 4 2 4 6 3 5 5 2 2 2 1 1 1 4 4 3 3 2 1 1 3 2 4 5 3 3 5 4 4 3 2 0 -1 -1 -2
-1 -1 -2 -3 -6 -8 -6 -2 -0 1 1 5 3 3 4 4 6 5 3 2 3 1 2 3 1 3 3 1 1 2 1 1 1 2 3 3 4 3 2 1 1 3 -1 -2 0 -0 -1
-0 -1 -2 -3 -4 -7 -8 -6 -1 -1 1 2 1 5 3 4 6 4 1 2 2 4 4 3 2 1 1 1 3 -0 2 -2 1 1 3 4 3 2 4 4 1 1 -0 1 1 1 3
-1 -1 -2 -3 -4 -6 -8 -7 -3 -1 -2 -2 0 5 3 4 5 4 2 1 5 5 5 5 2 2 4 5 1 3 4 2 4 3 3 4 2 2 3 1 1 1 0 -1 -0 3 4
-1 -2 -2 -3 -4 -5 -7 -8 -6 -0 -1 -1 -2 1 4 3 3 3 4 4 4 5 6 5 5 5 5 3 5 5 4 3 4 4 3 2 1 2 4 0 2 2 -0 -1 3 2 4
-0 -1 -2 -3 -4 -5 -6 -8 -7 -3 1 2 -1 4 3 4 3 4 3 2 3 4 4 5 4 5 4 4 3 3 4 3 3 3 3 2 2 4 3 2 3 -1 -0 1 2 4 4
1 -1 -2 -3 -4 -5 -6 -7 -7 -6 0 3 1 0 2 3 3 4 4 4 4 5 4 4 -0 6 5 5 3 4 3 5 3 3 2 3 3 3 3 2 -1 -0 -1 0 1 3 3

GFSGBSN_850_dewp_015.txt.gz
Dewpoint
-2 -7 -6 -9 -8 -6 -5 -3 -3 -1 -1 0 0 -0 -1 -0 -1 -2 -3 -5 -7 -8 -9 -7 -6 -4 -5 -4 -5 -5 -7 -6 -6 -9 -10 -7 -6 -4 -6 -8 -6 -12 -16 -13 -15 -15 -15
-4 -7 -7 -8 -7 -5 -3 -2 -1 -1 -0 0 -0 -1 -1 -1 -1 -2 -4 -6 -7 -7 -8 -6 -4 -4 -4 -3 -3 -4 -7 -6 -7 -6 -6 -7 -9 -5 -4 -7 -13 -14 -15 -14 -11 -14 -17
-3 -6 -9 -7 -5 -4 -2 -1 -1 0 -0 -1 -2 -2 -1 -1 -2 -3 -5 -6 -7 -7 -5 -4 -3 -3 -4 -5 -5 -5 -8 -9 -8 -9 -6 -7 -7 -5 -7 -8 -10 -15 -14 -14 -13 -11 -11
-2 -8 -9 -6 -5 -2 -1 -1 0 0 -0 -0 -1 -2 -2 -2 -2 -5 -5 -6 -6 -5 -4 -3 -3 -4 -5 -6 -5 -7 -8 -9 -9 -7 -7 -9 -8 -6 -10 -12 -11 -10 -10 -9 -11 -10 -9
-1 -9 -9 -5 -2 -2 -0 -1 0 1 1 1 -0 -2 -2 -2 -4 -5 -6 -5 -5 -4 -2 -2 -3 -4 -8 -6 -6 -8 -9 -9 -8 -6 -7 -8 -7 -9 -11 -9 -8 -7 -8 -8 -7 -9 -9
0 -8 -7 -4 -1 -1 -0 -0 0 1 2 2 0 -3 -3 -4 -5 -6 -5 -4 -3 -1 -1 -1 1 -3 -10 -7 -10 -9 -9 -9 -7 -8 -8 -7 -7 -6 -6 -9 -8 -7 -6 -7 -7 -8 -8
-0 -5 -5 -2 -0 0 -0 -0 1 2 2 2 0 -3 -4 -5 -5 -5 -4 -1 0 -1 -2 -10 -9 -8 -4 -7 -8 -9 -10 -10 -6 -6 -4 -5 -4 -4 -6 -6 -7 -6 -4 -5 -6 -7 -3
-1 -5 -4 -0 0 1 -0 0 1 1 2 2 -0 -3 -5 -5 -5 -4 -2 3 6 5 1 -12 -8 -4 -5 -5 -8 -8 -10 -6 -6 -4 -5 -4 -4 -5 -2 -2 -2 -3 -3 -2 -4 -5 -3
-1 -3 -3 1 1 1 -0 0 1 1 2 1 -1 -3 -4 -4 -4 -3 -1 3 5 2 3 -4 -5 -4 -5 -6 -6 -6 -5 -5 -6 -5 -4 -3 -5 -4 -3 -1 -0 0 -1 -2 -3 -4 -3
-1 -3 -2 2 2 1 -0 0 1 1 1 1 -1 -2 -3 -4 -2 -2 -1 6 4 2 -2 -5 -6 -7 -5 -6 -7 -6 -6 -5 -4 -3 -4 -1 -1 -2 -2 -2 -1 1 -1 -2 -2 -3 1
-1 -2 0 2 2 1 -0 -0 0 1 1 2 -1 -3 -4 -2 5 2 5 5 1 2 1 -6 -5 -6 -4 -4 -6 -8 -4 -4 -6 -4 -2 -1 -1 -1 -1 -2 -2 -0 -2 -2 -2 -1 -1
-2 -2 2 2 2 1 -0 -0 0 0 1 2 -0 -2 -4 2 5 4 3 -3 -3 5 1 -3 -4 -5 -6 -4 -4 -6 -3 -3 -3 -2 -2 -1 -2 -3 -2 -2 -2 -3 1 2 3 2 4
-2 -2 2 3 2 1 -0 -1 -0 -0 1 1 0 -2 -2 4 6 1 -3 -4 2 5 -3 -2 -2 -4 -3 -2 -2 -2 -1 -1 0 0 1 -1 -1 -2 -2 -0 -2 -0 2 5 6 5 6
-2 -1 2 2 2 1 -1 -1 -1 -0 0 0 1 0 1 3 4 -0 -4 -2 5 2 -1 -4 -2 -2 -1 -1 -1 -1 -1 -0 -2 0 2 2 2 -2 -4 -2 -1 0 1 5 6 5 4
-1 1 2 2 2 1 -0 -1 -1 -1 -1 -0 1 2 3 1 0 -2 -2 3 5 3 -3 -2 -1 -0 -1 -1 -1 -1 -0 -1 -1 -1 2 2 1 -2 -4 -4 -1 -0 1 0 4 3 4
-1 2 1 1 1 1 -0 -2 -1 -1 -1 -0 1 2 1 -1 -2 -3 4 6 5 1 -3 -2 0 -0 0 -0 0 1 1 0 0 -1 -2 0 0 -2 -3 -2 -2 -2 -1 3 2 2 3
0 1 0 0 1 1 -1 -2 -2 -1 -1 -1 -0 -1 -1 -1 -3 -3 3 6 6 -1 -1 -3 -1 0 -1 -0 0 2 2 2 2 1 -1 1 -1 -1 -1 -0 0 0 0 1 2 2 3
1 -1 -1 -1 1 1 -0 -1 -2 -1 -1 -1 -1 -2 2 0 -4 4 5 5 2 -2 -1 1 1 -0 -0 2 4 4 4 3 2 2 -1 0 1 2 0 -1 -1 -1 -0 -1 2 3 3
0 -1 -1 -1 0 0 1 -0 -2 -2 -1 -0 -0 7 7 2 -1 2 2 3 -1 -1 -0 0 1 1 1 4 5 5 4 2 -2 1 1 -0 1 4 4 2 -1 -0 -0 2 0 -0 2
-1 -1 -2 -1 -0 1 2 -0 -1 -2 -2 -0 1 5 6 4 -2 -1 2 3 2 1 1 0 1 1 2 4 4 5 4 3 -2 -1 1 1 2 1 3 1 -1 -2 -1 1 0 2 1
-2 -2 -2 -2 0 1 2 1 -1 -2 -1 2 4 2 3 4 4 6 2 2 2 2 1 -0 0 1 2 4 5 5 4 2 -0 -0 1 1 2 1 1 1 -1 -2 -3 1 2 1 1
-2 -3 -3 -2 0 2 3 3 1 -2 -1 3 6 3 -0 -2 -2 4 4 4 2 2 1 1 2 3 2 3 3 5 2 0 -1 1 3 2 3 -1 2 2 2 -1 -2 -2 -1 -2 1
-3 -4 -4 -3 -1 1 3 4 0 -2 -0 3 4 5 -3 3 2 4 4 3 3 1 2 1 3 3 2 3 2 2 1 1 1 2 4 2 1 -2 -2 2 0 -3 -1 1 -1 -1 -1
-3 -4 -5 -4 -2 0 3 4 0 -2 -2 1 4 5 2 3 0 2 4 2 3 2 3 3 2 2 1 1 0 1 1 2 3 4 1 2 1 -1 -1 -2 -4 -4 -2 -1 -1 0 2
-4 -4 -5 -5 -3 -0 2 3 -0 -3 -1 2 4 6 2 2 4 3 4 4 4 4 4 4 3 2 0 -3 -1 -1 -0 -1 1 4 3 1 -0 2 -1 0 -4 -5 -0 0 0 -0 2
-2 -4 -6 -6 -4 -1 2 2 1 -1 -2 3 4 4 0 4 4 4 4 3 4 4 4 4 3 1 1 -2 -1 -1 -2 -3 2 4 2 1 -2 -2 1 -4 -6 -6 -0 -1 -2 2 2
-2 -3 -5 -6 -4 -2 2 2 2 1 1 4 3 3 -0 3 5 3 4 3 2 3 4 5 5 3 1 -1 -1 1 3 -0 3 2 2 1 -1 -1 -3 -3 -1 -3 -0 -1 1 -2 3
-2 -3 -4 -5 -5 -4 0 1 1 0 1 -1 2 2 1 3 5 5 3 3 3 3 3 4 3 3 1 0 -1 0 2 2 2 1 3 3 3 1 1 -0 -0 -3 -0 1 -0 -2 1
-2 -2 -3 -4 -5 -5 -4 0 0 -1 -2 -2 -1 1 2 1 4 5 4 3 1 1 2 4 1 3 2 1 -0 2 2 3 1 2 0 1 -1 1 1 1 -2 -1 -1 -1 -2 -2 2

GFSGBSN_850_dewp_021.txt.gz
Dewpoint
1 0 -1 1 -1 -6 -9 -9 -9 -8 -7 -4 -3 -1 -1 -2 -2 -2 -1 -1 -3 -4 -7 -8 -9 -6 -4 -5 -7 -4 -6 -4 -4 -3 -3 -6 -6 -6 -2 -3 -5 -6 -8 -12 -12 -10 -1
5 1 0 0 -1 -6 -9 -9 -9 -8 -5 -2 -2 0 -2 -2 -2 -2 -1 -1 -4 -6 -7 -8 -6 -4 -3 -1 -5 -5 -6 -6 -5 -5 -3 -4 -7 -8 -4 -6 -5 -8 -13 -13 -13 -13 -8
8 2 1 -0 -2 -8 -8 -9 -9 -7 -4 -1 -1 -0 -2 -2 -2 -1 -1 -3 -5 -6 -8 -6 -4 -4 -4 -7 -5 -6 -6 -6 -7 -6 -6 -6 -7 -6 -5 -5 -10 -14 -12 -12 -11 -12 -11
9 6 2 2 0 -5 -8 -9 -8 -6 -3 -1 0 0 -0 -1 -2 -1 -2 -5 -6 -7 -6 -4 -3 -2 -7 -7 -6 -6 -7 -9 -9 -7 -5 -5 -5 -5 -5 -9 -10 -11 -9 -9 -11 -10 -10
9 8 2 2 1 -2 -9 -9 -8 -4 -1 -0 0 1 1 -1 -2 -2 -4 -6 -5 -4 -4 -2 -1 -1 -6 -7 -6 -8 -8 -9 -7 -7 -6 -5 -4 -4 -9 -7 -7 -6 -8 -7 -8 -4 -8
9 9 4 2 1 -1 -10 -10 -7 -3 -1 0 1 1 1 -2 -3 -3 -5 -5 -4 -3 -1 0 1 1 -7 -7 -5 -9 -8 -9 -6 -5 -5 -4 -6 -5 -7 -8 -5 -6 -6 -7 -6 -4 -1
8 9 7 3 3 -2 -8 -9 -5 -1 0 0 1 1 0 -2 -3 -4 -4 -3 1 1 1 -6 -6 -6 -8 -6 -8 -9 -9 -9 -5 -6 -3 -5 -4 -4 -4 -9 -9 -8 -7 -6 -5 -3 3
8 8 8 4 4 -0 -7 -9 -4 -1 0 1 2 1 0 -3 -3 -4 -3 1 4 3 4 -6 -7 -7 -7 -6 -6 -9 -9 -7 -6 -3 -5 -3 -2 -3 -2 -3 -3 -4 -3 -1 -1 -0 3
5 8 8 5 4 2 -6 -8 -3 0 1 1 2 1 -1 -4 -4 -4 -2 3 5 6 5 -2 -5 -8 -5 -5 -7 -6 -8 -6 -6 -4 -4 -2 -3 -3 -2 -2 -1 -1 -1 -1 0 1 1
-0 6 8 7 4 3 -4 -8 -1 1 1 1 2 1 -2 -4 -2 -2 1 3 6 6 -1 -4 -5 -6 -5 -6 -7 -6 -5 -6 -4 -1 -0 -0 -2 -3 -2 -0 -1 1 -2 -1 1 1 2
-2 1 7 7 5 4 -4 -6 -0 1 1 1 2 1 -1 -1 0 -1 2 6 5 4 2 -6 -6 -6 -4 -5 -8 -5 -3 -4 -3 -3 -2 -0 -1 -2 0 -1 -2 1 -2 -1 -2 -1 -0
-1 -1 4 7 5 5 -3 -5 1 1 1 1 2 1 0 -1 2 1 6 1 4 5 6 -4 -4 -5 -3 -4 -4 -3 -3 -4 -3 -1 -1 -1 -3 -2 -2 -1 -2 0 1 2 2 1 2
-1 -0 3 7 6 5 -2 -3 1 1 1 1 2 1 -0 1 4 5 1 2 3 5 -2 -3 -3 -4 -3 -1 -1 -2 -1 1 -0 2 2 -1 -1 -3 -3 -0 -1 0 2 5 6 6 4
-1 -0 1 6 6 5 -1 -2 2 1 1 1 2 2 -0 2 7 3 2 -1 1 1 0 -4 -3 -3 -1 -1 -1 -1 -1 1 -1 -0 1 0 1 -3 -3 -1 -0 1 2 7 5 7 5
-1 -1 0 6 6 5 -1 0 2 1 1 1 1 2 2 3 7 1 -3 2 2 2 -2 -1 -2 -0 -0 -1 -1 0 0 -0 -0 -1 2 2 -0 -3 -3 -2 -1 1 1 1 4 3 5
-2 2 2 5 7 5 -1 2 2 2 1 1 1 1 2 6 2 2 1 1 -0 2 -2 -3 -0 -1 1 0 1 1 0 1 0 0 -1 1 2 -2 -2 -2 -1 -0 -1 2 2 3 2
-2 1 2 5 7 4 -0 3 2 2 1 1 1 4 5 2 2 -0 2 0 4 4 0 -2 -0 0 0 1 1 2 1 2 2 1 -1 -2 1 0 -2 0 1 1 1 1 1 1 1
-1 1 2 4 7 3 1 3 2 2 2 1 5 1 5 2 -0 1 2 2 4 1 0 0 -2 -1 0 1 3 3 3 1 2 2 1 -0 2 3 -1 -1 -0 -1 -0 0 2 1 2
-0 2 1 4 6 1 2 2 2 2 1 1 4 7 7 1 3 3 1 2 2 -1 -0 0 2 0 2 4 4 4 4 1 -1 -0 2 1 2 4 2 -1 -1 0 0 -1 -0 1 3
1 1 1 4 6 1 2 2 2 1 1 3 3 7 8 2 -3 0 1 2 1 1 1 0 2 2 4 4 4 5 4 2 -1 0 1 -1 1 1 2 -1 -0 1 2 -1 -0 3 1
1 1 2 5 4 2 2 2 1 1 1 3 3 5 6 5 1 -1 -2 1 2 2 0 -0 2 1 3 5 4 4 4 1 -0 1 2 0 2 1 1 1 -0 -3 -0 0 -1 -1 2
0 1 3 5 1 1 2 1 2 1 1 4 2 3 2 2 -2 0 0 3 2 1 1 1 3 2 1 4 2 5 3 0 -3 2 3 1 3 -0 2 1 1 1 -1 -1 1 0 -1
0 2 5 2 1 1 2 1 2 1 0 4 4 1 -2 2 4 2 3 3 2 2 2 1 2 2 2 2 2 2 -0 -0 -0 3 3 1 2 1 1 0 -2 0 -1 -1 -1 -1 -0
2 4 4 1 0 1 1 2 1 0 -0 3 3 -0 -1 1 3 2 3 2 3 2 3 2 1 2 2 1 1 1 2 2 2 1 0 1 -1 -2 1 -1 -0 -4 -2 -2 -1 -2 -2
4 4 1 -0 1 1 2 2 1 -0 0 3 3 1 -0 2 1 2 4 4 3 3 4 4 3 1 1 -1 2 2 2 2 2 1 -1 -1 -0 1 3 0 -3 -7 -5 -1 1 -2 -2
3 1 -0 1 1 2 2 2 1 -1 0 3 4 3 2 1 2 1 4 3 4 4 4 4 2 1 -1 -1 1 3 4 2 -0 3 1 -1 -2 2 0 -0 -0 -4 -7 -2 -2 3 -2
0 -1 -0 1 1 2 3 2 0 -1 1 4 3 4 3 0 0 2 4 4 2 3 4 3 1 2 -1 0 2 2 2 -1 -0 1 4 4 3 3 -1 3 -0 -4 -4 -2 1 1 -4
-1 -1 1 1 1 3 4 3 0 -1 1 3 3 4 4 4 4 3 2 2 2 2 5 3 3 3 1 3 3 2 3 2 1 -0 3 3 4 4 0 1 2 -5 -0 2 -0 -3 -5
-1 2 2 3 4 3 3 3 1 -1 1 0 3 4 4 4 5 5 3 2 1 1 2 2 2 2 1 3 0 1 3 2 1 3 1 2 2 3 1 2 -4 -4 -1 -3 -2 -2 -4

GFSGBSN_850_dewp_024.txt.gz
Dewpoint
8 9 8 2 1 -0 -3 -7 -10 -9 -9 -8 -8 -5 -2 -1 -2 -3 -3 -1 -2 -3 -5 -7 -9 -8 -6 -0 -3 -4 -5 -13 -9 -7 -4 -6 -7 -7 -9 -8 -6 -6 -8 -9 -11 -2 2
9 9 8 7 1 1 1 -7 -9 -8 -9 -8 -8 -3 -1 -1 -1 -2 -2 -1 -3 -4 -6 -8 -8 -6 -4 -1 -5 -4 -6 -5 -7 -5 -2 -4 -7 -7 -7 -5 -6 -7 -8 -11 -12 -7 -0
7 9 9 8 4 0 -1 -5 -9 -8 -9 -7 -5 -1 -0 -1 -1 -2 -2 -2 -4 -5 -6 -7 -6 -4 -3 -2 -5 -6 -6 -5 -5 -5 -3 -3 -5 -6 -4 -4 -6 -10 -11 -12 -13 -9 -5
7 8 9 8 7 2 -0 -4 -8 -8 -8 -6 -3 -0 -0 -0 -1 -2 -2 -4 -5 -6 -6 -5 -4 -3 1 -8 -7 -6 -6 -8 -7 -4 -3 -2 -3 -4 -4 -7 -11 -11 -11 -11 -9 -10 -10
7 8 8 9 8 3 1 -2 -8 -8 -7 -4 -1 0 1 0 -1 -3 -2 -5 -5 -5 -4 -3 -2 -1 -1 -7 -6 -7 -8 -7 -7 -6 -3 -4 -3 -3 -5 -5 -9 -10 -11 -10 -8 -6 -10
-0 7 7 7 8 6 2 -1 -6 -10 -7 -2 -0 1 1 0 -2 -3 -3 -5 -4 -4 -3 -1 0 4 -5 -6 -4 -8 -8 -7 -4 -4 -2 -2 -4 -4 -7 -7 -6 -10 -8 -12 -10 -4 -10
1 4 7 7 8 8 3 1 -3 -10 -6 -1 1 1 1 -0 -3 -4 -4 -3 2 3 -0 -0 -3 -1 -7 -6 -7 -8 -8 -6 -4 -4 -3 -4 -4 -4 -8 -8 -9 -10 -8 -10 -6 -1 0
2 1 5 8 8 9 4 3 -2 -9 -5 -0 1 1 2 -0 -3 -4 -3 -1 2 4 2 -5 -4 -6 -7 -7 -5 -8 -9 -7 -5 -6 -4 -4 -4 -3 -3 -7 -7 -7 -7 -4 -3 -1 -0
1 1 3 6 8 8 6 3 -1 -7 -5 -0 1 2 2 -2 -4 -4 -4 0 5 6 5 1 -2 -4 -6 -6 -7 -8 -7 -6 -5 -5 -3 -3 -2 -3 -3 -4 -4 -3 -3 -2 -3 -0 0
1 1 -0 4 7 8 7 4 1 -7 -3 1 1 2 2 -3 -3 -4 -3 0 2 7 -1 -4 -3 -3 -5 -4 -7 -6 -6 -6 -5 -5 -2 -2 -3 -3 -3 -2 -3 -2 -3 -2 -0 -1 -2
-1 -0 1 -2 5 7 8 4 3 -5 -1 1 2 2 1 -3 -0 -2 3 -0 6 5 0 -5 -5 -6 -5 -6 -6 -4 -4 -4 -5 -2 -1 -0 -2 -2 -2 -1 -2 -0 -2 -1 -2 -2 -1
-2 -2 -2 -0 0 6 8 5 3 -4 -1 2 2 2 2 -2 -1 -1 4 7 5 4 0 -4 -5 -5 -4 -4 -4 -3 -2 -3 -2 -2 -2 -1 -2 -2 -1 -1 -2 -1 -1 -1 -1 -1 1
-3 -1 -1 -0 -1 4 7 6 4 -3 0 2 2 2 0 -2 3 1 6 6 2 2 -2 -3 -4 -5 -5 -4 -3 -2 -2 -2 -3 0 0 -1 -2 -3 -2 -1 -0 -0 -0 1 4 3 1
-2 -2 -1 -2 -1 -0 7 6 4 -2 1 2 2 2 0 -1 5 8 6 2 1 -3 -2 -4 -4 -4 -3 -3 -2 -1 -1 -1 -1 -2 -1 -2 1 -3 -2 -1 -2 -1 -1 -0 -1 0 -1
-3 -3 -2 -1 -2 -1 5 6 4 -0 2 2 2 2 1 -2 2 8 3 3 -1 -1 -2 -3 -3 -3 -1 -2 -2 -1 -1 -1 -1 -1 -3 -1 -1 -2 -2 -2 -1 -0 -0 1 4 4 5
-4 -4 -3 -1 -1 1 4 7 5 1 3 2 2 2 2 -1 1 5 4 2 -1 0 -2 -4 -3 -4 -1 -2 -2 -1 0 -0 0 -0 -0 -1 1 -1 -1 -2 -1 -0 -1 2 2 5 1
-5 -5 -4 -1 -0 -0 3 7 5 1 3 3 4 3 2 1 4 7 4 1 -1 3 0 -3 -4 -1 -2 -1 -3 -2 -0 1 0 -0 -1 -2 -1 1 -0 -0 -0 0 0 -0 -0 1 -2
-5 -5 -3 -3 -0 1 3 6 5 2 4 3 5 3 3 3 6 3 2 -0 2 1 2 -1 -1 -1 -1 -0 1 -2 -1 -0 1 0 0 -1 1 3 1 -1 -1 -1 -1 -2 -2 -0 2
-4 -4 -3 -2 -2 2 4 6 4 3 4 4 3 6 8 7 6 5 1 -0 3 -0 0 1 0 -0 1 2 2 2 2 1 0 1 1 0 2 4 2 0 -1 -0 -1 -2 -0 1 1
-4 -3 -3 -2 1 2 4 6 3 3 3 3 3 7 8 4 1 1 1 0 1 1 1 1 2 2 3 3 3 4 4 2 0 0 -1 -1 2 1 3 -1 -1 1 0 -2 -3 1 -3
-5 -3 -3 -0 1 2 5 6 2 3 3 4 5 4 4 5 1 1 -0 -0 -1 2 1 1 2 1 2 5 4 4 3 1 1 2 2 1 2 1 -1 -1 -1 -2 -1 -1 -2 -3 -0
-5 -3 -1 -1 0 0 5 5 3 3 2 5 4 4 4 2 -1 -0 0 1 -2 1 1 1 2 2 3 4 1 4 3 1 1 2 2 1 3 1 2 0 -0 -0 -2 -3 -2 -3 -2
-3 -2 0 1 0 2 5 3 3 3 2 5 3 1 1 3 1 0 -0 -1 -1 2 3 1 2 3 4 3 3 3 2 0 -0 2 3 3 3 2 1 -0 -0 4 0 -2 -3 -2 -2
-1 -0 1 1 2 4 4 2 3 3 2 4 2 1 2 5 2 -1 -2 -1 1 2 3 3 2 3 4 3 2 1 2 1 1 1 1 3 2 2 5 2 8 -6 -5 -5 -3 -4 -5
-0 1 2 2 5 4 2 2 3 3 2 4 2 -0 -1 8 2 -0 -1 -1 3 3 4 4 4 3 2 2 4 4 5 7 4 1 0 -1 1 4 8 0 -4 -10 -6 -4 -2 -6 -6
1 1 3 4 4 2 1 3 3 2 2 4 2 -1 -2 5 4 -0 -0 2 4 5 5 4 3 2 -1 3 6 7 6 3 3 4 1 -1 -1 2 3 10 10 -4 -4 -2 -2 -1 -5
1 3 4 3 1 1 2 2 3 2 2 5 3 0 0 4 3 3 1 3 4 4 6 3 3 3 1 6 11 8 6 -0 2 3 6 6 5 8 5 8 2 -5 -6 -1 -0 -3 -2
4 2 2 1 1 1 2 2 3 1 3 5 3 2 1 4 5 3 2 4 4 4 6 4 4 4 4 9 9 6 9 2 1 -1 3 4 7 8 4 9 7 -4 -1 2 -1 -1 -1
2 1 0 0 1 2 2 3 3 0 4 4 4 4 3 4 7 4 2 2 2 4 5 4 5 4 3 6 7 6 7 5 5 4 0 3 2 3 1 1 -3 -3 -2 -1 -0 -1 -1

GFSGBSN_850_dewp_030.txt.gz
Dewpoint
6 7 8 9 9 8 8 7 3 1 -1 -6 -9 -9 -9 -7 -5 -3 -2 -3 -3 -3 -3 -5 -8 -9 -10 5 0 0 -6 -8 -13 -8 -2 -6 -11 -10 -9 -10 -10 -10 -9 -9 -7 -1 -2
-28 1 6 8 8 9 7 8 7 2 -0 -4 -9 -8 -8 -7 -4 -1 -2 -3 -3 -3 -4 -7 -9 -9 -5 2 -4 -1 -5 -8 -9 -4 -4 -9 -10 -10 -10 -11 -11 -12 -8 -8 -9 -3 -3
-33 -32 -10 4 7 9 7 8 8 4 1 -2 -8 -7 -8 -6 -3 -1 -2 -3 -3 -4 -6 -8 -8 -7 3 -1 -2 -0 -2 -5 -5 -4 -6 -7 -8 -7 -8 -7 -11 -7 -7 -8 -10 -4 -1
-33 -33 -31 -14 6 5 8 7 8 7 3 0 -5 -7 -7 -4 -1 -0 -2 -3 -3 -5 -6 -8 -6 -4 4 -2 -3 -3 -1 -2 -3 -5 -5 -4 -4 -5 -5 -4 -6 -6 -7 -5 -8 -5 -2
-32 -33 -33 -29 -3 2 7 7 7 8 4 2 -3 -7 -7 -2 -0 -0 -2 -4 -5 -6 -7 -7 -2 5 2 -2 -4 -5 -4 -5 -3 -3 -3 -3 -3 -3 -4 -3 -2 -6 -4 -3 -6 -7 -2
-30 -31 -31 -32 -29 -5 7 7 7 7 7 3 -1 -6 -6 -1 0 0 -2 -5 -6 -7 -5 -5 -2 4 -2 -3 -6 -7 -6 -4 -2 -2 -2 -2 -3 -2 -3 -2 0 -3 -4 -6 -7 -10 -8
-26 -28 -29 -28 -27 -27 5 7 6 6 9 4 1 -4 -4 -0 1 1 -2 -5 4 5 4 0 -0 -2 -5 -6 -5 -6 -7 -3 -2 -1 -1 -2 -2 -2 2 -2 -5 -5 -6 -6 -9 -10 -8
-20 -19 -22 -23 -21 -26 -12 5 3 8 9 5 2 -4 -3 0 1 1 -2 5 5 6 6 3 -4 -1 -3 -4 -6 -7 -8 -5 -2 1 -1 -1 -0 -3 -0 -4 -4 -5 -5 -6 -9 -8 -7
-3 -9 -15 -16 -18 -17 -19 3 7 8 8 6 3 -3 -3 1 1 0 -2 -6 4 5 5 -0 -4 -5 -4 -5 -6 -8 -8 -8 -2 -0 0 3 1 -1 -2 -5 -5 -6 -6 -3 -6 -10 -13
-2 -1 -3 -10 -7 -10 -18 -0 5 7 7 7 4 -2 -2 2 1 -0 -0 -7 1 4 6 -1 -4 -5 -4 -6 -7 -9 -9 -9 -4 -3 3 2 -2 -2 -5 -5 -7 -2 -3 -4 -4 -4 -3
-1 -2 1 2 -0 -4 -10 -4 5 6 7 8 4 -1 -2 2 7 4 7 4 9 9 8 -3 -4 -6 -5 -6 -8 -9 -7 -7 -5 -3 0 2 0 -1 -2 -2 -3 -1 -1 -2 -6 -5 4
-1 -1 0 1 1 2 -4 -7 3 6 7 8 5 1 -0 3 2 3 8 9 9 9 6 -4 -6 -5 -6 -7 -9 -9 -8 -7 -7 -6 -4 -1 -3 -0 4 -0 -3 -2 -1 -3 -4 -3 7
0 -2 0 1 1 1 1 -4 -0 5 8 8 5 2 -1 3 5 3 6 10 8 5 -5 -4 -5 -6 -6 -6 -7 -7 -6 -7 -5 -3 -1 -3 -3 -4 -1 -3 -5 -5 -3 4 9 9 7
-1 -1 -0 0 1 1 1 -2 -0 3 6 8 5 3 -1 3 7 8 9 11 6 -1 -1 -9 -8 -7 -5 -7 -8 -8 -6 -6 -8 -7 -5 -0 0 -4 -4 -4 3 -2 -4 6 9 10 5
-4 -2 -1 1 0 0 1 0 -0 1 5 7 6 4 1 2 4 9 9 11 5 1 -4 -6 -8 -5 -6 -7 -8 -8 -6 -7 -8 -8 0 3 4 -1 -4 -5 -5 -3 -1 -3 -1 6 9
-4 -1 -1 -1 0 0 0 -0 -0 0 4 7 6 5 1 3 3 8 9 8 2 -2 -4 -6 -5 -6 -5 -6 -6 -6 -6 -8 -9 -8 2 7 8 3 -3 -4 -4 -3 -5 1 -1 3 3
-3 -1 -2 -2 -0 0 0 -2 -2 1 2 6 6 4 1 3 4 8 9 6 4 -3 -5 -4 -6 -6 -6 -5 -5 -5 -7 -8 -5 -3 -3 -1 5 0 -2 -2 -6 -1 -1 -3 -5 2 7
-2 -2 -3 -3 -1 1 0 -2 -1 0 2 5 5 4 2 3 5 3 7 3 0 -1 -5 -3 -4 -7 -6 -5 -5 -6 -5 -5 -5 -5 -2 -4 -2 2 -1 -4 -4 -3 -1 -2 8 2 4
-3 -3 -4 -4 -2 -0 1 -1 -1 -1 1 5 4 4 6 3 5 6 4 3 0 -1 -2 -1 -3 -4 -6 -5 -4 -5 -6 1 0 -1 -0 -1 -0 3 -1 -1 -2 -2 -4 -5 -2 3 4
-4 -4 -5 -3 -1 -0 1 -0 -0 -1 1 5 3 7 9 8 1 3 6 3 2 -1 -4 -2 -3 -5 -3 -4 -4 -3 -3 1 1 0 -1 1 -1 -2 4 -1 -2 1 -2 -5 -3 8 3
-4 -4 -3 -2 -2 0 1 -1 0 -1 1 5 4 4 6 8 7 4 5 2 1 1 -3 -3 -2 -4 -1 0 -3 0 -2 3 1 2 -0 0 0 -2 -4 -3 -2 -1 -3 -4 -4 -2 2
-4 -3 -2 -2 -0 0 -0 -1 -1 -0 2 4 4 3 4 3 4 4 5 4 1 -1 -2 0 -1 -3 -2 -1 -1 0 -1 2 1 3 1 1 3 2 3 0 -1 -0 -2 -3 -5 -6 -5
-3 -1 -1 -0 -0 -0 -1 -2 -2 0 2 4 4 4 5 4 5 5 6 5 1 -0 -1 -2 -1 -1 -0 -0 1 3 2 0 -0 3 3 3 5 6 6 0 -0 4 1 -2 -4 -5 -5
-1 -1 -0 -0 -0 -2 -3 -3 -2 1 2 4 3 5 5 7 4 4 4 3 -1 -0 2 -1 -1 1 3 2 2 1 1 1 2 2 1 4 5 8 9 4 6 -4 -7 -8 -6 -7 -8
-1 -1 -1 -2 -2 -3 -4 -3 -1 -1 2 4 4 6 6 8 3 2 4 3 -1 -3 1 0 4 4 2 3 6 6 7 5 2 -0 0 1 5 8 10 5 -1 -4 -7 -6 -5 -5 -7
-3 -4 -4 -4 -4 -3 -2 -2 -2 -1 2 4 5 7 8 7 6 1 1 0 2 4 6 5 4 3 3 6 10 7 8 3 3 3 -2 -2 3 8 7 9 9 0 -5 -6 -6 0 -5
-4 -5 -8 -6 -5 -3 -2 -2 -0 -1 2 4 4 6 9 6 3 1 1 2 0 5 6 5 5 5 5 11 9 11 8 0 6 7 7 7 8 8 7 9 6 -3 -5 -4 2 5 -3
-5 -10 -8 -5 -4 -2 -0 -1 -1 0 2 3 4 7 7 6 2 1 -2 -2 -0 4 8 5 5 5 8 10 11 10 11 7 4 1 6 7 9 8 9 9 8 -5 -4 -0 2 -2 -3
-9 -8 -5 -3 -1 -0 1 1 -0 -2 2 4 5 5 7 8 7 5 2 0 -0 2 5 5 4 4 5 7 10 11 8 7 8 7 -2 5 4 8 6 7 -0 -6 -4 -5 -3 -2 -2

GFSGBSN_850_dewp_036.txt.gz
Dewpoint
-33 -32 -28 -12 3 4 6 4 9 8 8 8 6 -1 -6 -10 -10 -10 -8 -6 -3 -4 -5 -5 -7 -9 -11 -9 -13 -3 -3 -8 -14 -14 -11 -8 -4 -3 -7 -9 -9 -8 -8 -3 2 3 2
-32 -33 -33 -32 -26 -1 4 6 5 6 8 8 8 3 -4 -10 -10 -9 -8 -5 -3 -4 -5 -6 -8 -9 -9 -2 0 -1 -1 -7 -9 -8 -7 -5 -4 -4 -5 -8 -6 -5 -4 2 1 1 0
-31 -32 -33 -34 -34 -31 -11 4 5 5 6 7 8 7 -1 -8 -10 -9 -7 -4 -3 -4 -6 -7 -8 -8 -8 -17 -1 -1 -1 -3 -7 -7 -6 -5 -4 -3 -4 -4 -5 -4 -5 3 4 4 3
-29 -30 -31 -33 -33 -34 -33 -21 2 4 3 6 7 8 3 -5 -9 -9 -6 -3 -3 -4 -6 -7 -8 -5 -10 -15 -6 -4 -2 -1 -3 -4 -6 -5 -4 -3 -3 -5 -4 -2 -5 -4 3 2 2
-28 -29 -29 -30 -32 -33 -34 -32 -17 -4 3 4 6 8 6 -2 -8 -9 -6 -2 -3 -6 -6 -7 -6 5 -6 -4 -4 -3 -3 -3 -2 -2 -4 -4 -4 -3 -3 -2 -1 -2 -3 -4 -1 -0 0
-15 -26 -28 -29 -30 -31 -32 -33 -30 -19 -3 1 6 6 8 1 -6 -9 -5 -2 -4 -3 -5 -5 -4 1 -8 -3 -2 -6 -5 -4 -2 -2 -3 -3 -2 -1 -1 -0 2 0 -2 -4 -2 -3 -0
2 -5 -24 -28 -27 -28 -30 -31 -32 -30 -11 -1 5 6 7 5 -4 -9 -4 -2 3 7 4 -4 -6 -9 -7 -4 -4 -5 -5 -5 -2 -2 0 1 1 1 1 -0 -0 -0 1 1 -4 -6 1
2 1 -1 -17 -24 -18 -25 -29 -31 -31 -23 -8 4 6 6 7 -2 -8 -1 -1 4 2 4 3 3 5 -1 0 -2 -4 -5 -4 -1 2 2 1 2 1 -0 -1 -0 0 1 0 -3 -5 -0
1 2 2 -3 -11 -17 -16 -20 -28 -30 -27 -7 5 6 6 8 -1 -7 -0 1 1 1 4 3 -2 -2 -4 -4 -2 -3 -5 -5 -1 0 1 2 1 0 1 -1 0 0 1 -0 0 -4 -9
0 1 1 2 2 -2 -10 -11 -18 -26 -24 -9 6 6 5 8 -2 -5 7 8 -3 -3 7 5 3 1 -3 -6 -3 -5 -6 -4 -3 1 1 1 -0 1 1 1 -0 1 -1 -2 0 -3 -5
2 0 0 1 1 2 1 -3 -9 -15 -19 -13 5 6 4 7 -2 4 8 8 4 7 4 -0 3 -2 -8 -5 -5 -6 -7 -6 -1 1 1 -1 1 1 1 1 -0 1 -1 -0 -1 0 1
2 1 0 0 1 1 2 2 2 -2 -14 -7 5 7 8 7 1 -1 6 8 7 8 8 3 -0 -4 -4 -5 -4 -6 -7 -7 -6 1 0 -2 -1 0 1 0 0 0 -0 1 3 3 3
-0 1 1 -1 -0 0 1 1 2 2 -2 -5 4 7 7 6 3 -6 4 7 8 9 2 1 -1 -3 -3 -2 -3 -4 -5 -5 -4 1 2 0 1 -0 1 1 0 0 1 4 4 6 5
-5 -0 1 1 -1 -1 0 0 -0 2 2 -2 4 6 7 7 3 2 6 9 9 4 4 -1 -2 -3 -2 -3 -3 -4 -5 -4 -5 -3 2 2 3 0 1 1 2 2 0 5 5 6 4
-7 -5 1 1 0 -2 -1 0 -0 1 2 0 3 5 7 5 4 3 8 9 6 6 -1 -1 -2 -1 -1 -3 -4 -4 -3 -4 -5 -5 -2 4 4 2 1 2 1 1 2 1 6 6 6
-7 -4 1 1 0 -1 -3 -1 -0 -0 2 0 3 4 6 6 6 2 8 6 6 4 1 0 -1 -1 -1 -3 -3 -4 -4 -4 -4 -5 -2 3 4 2 2 0 -0 -0 -2 2 3 5 6
-6 -6 1 0 -0 -0 -3 -2 -0 -0 1 0 3 5 5 6 6 4 7 5 4 2 3 3 1 -1 -2 -2 -3 -3 -4 -5 -5 -0 0 3 1 3 3 3 2 -1 -1 -1 1 3 4
-4 -6 -0 -0 -0 -1 -2 -3 -0 0 1 1 3 5 4 5 5 4 6 4 3 3 3 4 3 2 -1 -2 -2 -3 -2 -5 -2 1 1 3 5 6 3 1 0 -2 0 1 3 0 4
-2 -3 -2 -1 -1 -2 -2 -3 -0 1 1 1 3 4 5 6 5 3 3 4 3 2 4 4 3 2 -3 -2 -0 -2 -0 1 1 -0 2 3 4 4 2 -1 1 0 -2 -1 2 2 2
-2 -4 -3 -2 -1 -2 -3 -5 -2 0 1 1 3 4 5 6 4 0 3 4 5 2 3 4 5 3 1 -2 -1 1 3 2 2 1 0 -0 1 2 3 -1 -0 1 0 -0 -0 3 2
-2 -5 -3 -2 -2 -3 -4 -5 -4 0 2 1 3 3 2 6 5 2 0 3 4 4 3 3 3 4 4 0 -1 3 4 3 2 -0 1 0 1 -1 -1 -1 1 0 0 1 -1 -0 1
-2 -5 -3 -3 -3 -5 -6 -7 -4 -0 2 1 2 4 3 4 3 4 2 2 2 1 1 2 4 4 2 -0 -1 2 4 3 1 2 0 1 1 1 1 1 -1 -0 -1 -2 -1 -1 0
-2 -4 -2 -3 -4 -6 -7 -6 -4 -0 0 1 2 2 3 2 4 5 3 2 1 -0 0 -0 2 2 3 1 -1 -2 -0 0 2 2 3 2 4 3 3 -0 -1 1 -1 -2 -2 -1 -2
-5 -5 -4 -4 -5 -7 -7 -7 -1 -1 -0 1 2 3 4 4 5 5 3 1 1 1 0 2 1 3 1 1 1 2 2 4 3 4 3 4 4 2 3 0 1 0 -3 -3 -2 -3 -4
-5 -5 -5 -5 -6 -6 -6 -4 -2 -1 -1 1 2 4 5 4 4 5 4 2 -0 0 3 0 1 2 1 1 5 4 4 3 1 2 3 4 3 4 2 3 1 -1 -4 -5 -3 -2 -3
-5 -4 -5 -6 -6 -6 -4 -3 -5 -3 -2 0 2 3 5 5 4 3 5 2 2 4 3 3 3 3 3 6 4 4 5 4 4 1 2 3 3 3 4 2 1 -0 -4 -5 -3 1 -2
-4 -5 -5 -5 -4 -4 -5 -4 -4 -2 -2 0 2 3 3 5 4 3 4 4 1 2 6 7 5 5 5 3 4 4 5 3 5 4 2 3 3 2 1 1 1 -1 -3 -4 -3 -2 -1
-4 -4 -4 -3 -3 -4 -4 -4 -3 -1 -0 1 2 2 2 4 4 6 3 1 0 2 6 6 6 6 5 5 5 4 2 3 4 4 3 3 4 2 4 3 2 -0 -3 -2 -1 -1 -1
-2 -2 -1 -1 -2 -2 -2 -2 -2 -1 0 1 2 2 2 3 4 5 6 6 3 1 4 6 4 5 6 7 5 4 4 2 3 5 3 3 2 3 3 3 0 -3 -2 -1 -2 0 2

GFSGBSN_850_dewp_042.txt.gz
Dewpoint
-20 -13 -20 -23 -25 -23 -17 -2 5 7 7 5 8 9 8 8 6 -3 -9 -10 -9 -7 -5 -5 -6 -8 -10 -11 -18 -3 -3 -8 -11 -11 -10 -7 -5 -3 -4 -6 -8 -8 -9 -5 -5 3 4
-22 -24 -24 -27 -23 -26 -27 -23 -9 5 6 6 5 4 8 7 8 3 -6 -9 -9 -7 -4 -4 -6 -8 -8 -6 -3 -1 -5 -8 -9 -12 -9 -7 -4 -3 -3 -4 -7 -6 -1 1 3 4 3
-1 -14 -13 -25 -25 -24 -27 -29 -26 -18 3 5 5 6 3 6 8 7 -1 -7 -9 -7 -4 -4 -6 -7 -8 -15 -4 -0 -2 -3 -8 -8 -7 -5 -4 -4 -3 -3 -4 -4 2 2 3 2 3
1 1 -2 -5 -22 -23 -20 -23 -28 -28 -20 3 5 6 5 2 6 8 4 -4 -9 -8 -4 -3 -6 -6 -10 -18 -6 -1 -2 -2 -4 -6 -6 -5 -4 -3 -3 -3 -3 -4 -3 3 2 3 3
3 2 1 1 0 -14 -18 -13 -19 -28 -27 -24 -2 4 5 3 4 8 7 -2 -8 -8 -4 -3 -5 -5 -10 -14 -14 -5 -4 -3 -2 -2 -3 -4 -3 -3 -3 -2 -2 -2 -3 -4 -1 2 3
2 3 2 2 2 2 -4 -9 -20 -20 -28 -26 -20 0 5 4 5 7 7 0 -8 -6 -4 -1 0 -2 -13 -6 -3 -3 -3 -3 -3 -2 -2 -2 -2 -2 -1 -2 0 1 0 -1 -1 1 2
-1 2 3 2 2 3 2 -2 -4 -11 -24 -28 -29 -8 2 5 7 8 7 -3 -2 2 5 2 -6 -9 -14 -7 -3 -4 -4 -3 -3 -2 -1 1 1 1 -1 -1 -2 -1 0 1 -1 -4 3
-2 -0 1 3 2 2 2 2 2 1 -9 -20 -28 -23 -1 5 5 7 7 -4 1 3 4 1 -0 1 2 3 2 -3 -4 -4 -2 -0 1 0 2 -1 -1 -0 1 -0 -0 -0 -2 -3 -1
-1 -3 -2 0 2 2 2 2 2 2 2 -10 -25 -21 -4 4 5 7 7 -3 4 6 4 -0 -1 -0 -2 -1 0 -2 -4 -3 -1 1 1 1 -1 -0 1 -1 -0 -1 -1 -0 0 -1 -5
-1 -1 -3 -1 0 2 2 1 2 2 2 -1 -17 -16 1 1 7 6 6 4 6 4 3 2 4 1 -0 -1 -0 -4 -3 -3 -2 0 1 1 -1 0 0 0 -1 -0 -1 -0 0 -0 -1
-1 -1 -2 -4 -4 0 2 1 1 1 2 2 -7 -15 3 6 6 3 5 5 1 4 -2 -5 4 0 -0 -3 -4 -3 -4 -3 -2 0 -0 0 1 2 2 0 -1 -1 -1 0 0 0 0
0 -0 -1 -2 -4 -3 -1 1 1 1 1 2 2 -12 3 5 7 2 7 5 5 5 2 -3 2 1 -2 -4 -4 -4 -3 -5 -3 1 0 -1 -1 -0 -0 -1 -1 -1 -1 0 1 2 3
0 1 0 -1 -3 -4 -2 1 2 1 1 2 3 -3 4 5 6 2 6 5 9 6 -3 -0 3 -2 -3 -3 -4 -5 -4 -3 -1 1 2 0 0 -1 0 -0 -0 -1 1 4 4 5 4
-1 0 1 0 -1 -3 -4 -2 2 0 1 1 2 1 3 5 5 5 5 7 8 4 2 1 -1 -2 -3 -4 -4 -3 -4 -3 -5 -2 1 1 1 0 0 -0 1 1 1 4 4 5 2
0 -0 0 1 -1 -2 -4 -4 1 1 -0 1 1 2 3 4 6 4 6 8 5 4 3 -1 -2 -1 -2 -4 -3 -3 -3 -3 -4 -2 -2 2 1 1 1 1 -0 1 2 -0 5 5 5
1 1 0 1 1 -1 -2 -6 -3 2 -1 -0 2 2 1 3 4 6 5 6 5 1 3 4 0 -1 -0 -2 -2 -2 -2 -4 -4 -3 -3 -0 -1 1 1 1 0 -1 0 2 3 4 4
1 1 1 1 1 -0 -2 -6 -4 2 -0 -0 1 2 -1 3 5 5 5 4 3 2 2 4 6 5 -0 -1 -2 -2 -2 -5 -4 -4 -4 -0 -2 -2 2 1 1 1 0 0 1 2 3
-2 1 1 1 2 0 -2 -4 -6 1 -0 -1 1 1 0 1 5 4 4 3 1 2 2 3 4 5 5 -1 -1 -2 -2 -4 -6 -2 -2 0 -1 -1 -1 0 -1 -2 0 0 3 1 3
-4 -4 1 1 1 1 -1 -3 -7 1 0 -1 1 1 2 0 4 4 3 2 1 3 3 3 4 4 3 -1 -2 -1 -2 -5 -4 -2 -0 1 1 0 -1 -1 -0 1 0 0 1 1 3
-3 -4 -0 1 1 1 -1 -2 -6 1 -0 -2 1 1 4 3 1 2 2 2 2 1 2 2 4 4 3 2 -0 -2 -2 0 1 -2 -2 -1 2 -1 0 -1 -1 2 0 1 1 3 2
-2 -1 -2 1 1 1 -1 -3 -4 -0 0 -1 2 -0 2 4 3 2 1 1 3 2 2 2 3 4 4 4 2 1 2 3 1 2 1 -1 1 1 -1 -2 -1 -1 -0 1 0 0 2
-2 -1 -2 1 1 1 0 -2 -5 -2 -0 0 1 1 1 2 1 2 2 1 2 1 3 2 3 2 4 5 3 1 3 3 2 1 1 0 1 -2 1 -0 -0 1 0 0 -0 -1 -0
-1 -1 -2 1 1 1 -0 -2 -5 -4 -1 0 1 -0 1 0 2 2 2 1 1 1 1 2 1 2 3 2 0 -1 -0 1 1 2 2 1 2 1 2 -0 -1 2 -0 0 -1 -1 -1
0 -1 -1 1 1 0 -0 -2 -1 -1 -1 -1 0 -1 1 2 3 1 0 1 1 1 2 1 2 2 1 -1 1 2 2 2 2 3 2 2 1 1 2 0 2 -1 -2 -2 -0 -1 -3
-0 -1 -1 1 1 -0 -1 0 -1 -0 -3 -0 0 0 1 0 2 2 1 1 1 0 1 1 1 0 0 -1 3 4 4 2 3 3 3 2 1 3 3 3 0 -1 -3 -2 -2 -3 -3
-1 -1 -0 0 0 -0 -1 -1 -0 -2 -3 -1 0 1 2 3 1 1 1 1 2 1 1 1 0 -1 -1 4 3 5 7 5 4 3 1 1 1 2 1 2 3 1 -2 -5 -5 -1 -3
-1 -0 1 -0 -0 -1 -0 -0 -1 -2 -2 -2 -0 1 1 2 3 1 2 2 1 1 2 1 1 3 2 1 4 4 5 4 5 5 4 3 2 2 0 2 2 -0 -4 -5 -2 -1 -3
1 1 -0 -0 -0 -1 -0 -1 -3 -3 -2 -2 -4 -1 -1 2 2 4 3 1 1 1 2 1 2 3 4 4 5 4 3 4 4 3 4 5 4 2 1 1 5 -3 -3 -2 -2 -5 -3
-0 -0 -0 -0 -1 -1 -1 -1 -2 -3 -2 -2 -3 -3 -1 0 2 3 4 4 2 2 1 2 2 4 2 5 4 2 3 1 3 5 1 4 3 4 3 4 0 -2 -4 -5 -5 -3 -3

GFSGBSN_850_dewp_045.txt.gz
Dewpoint
-6 -12 -20 -24 -25 -25 -27 -28 -21 -10 1 6 6 6 4 8 8 8 8 2 -6 -8 -8 -6 -5 -7 -9 -10 -15 -10 -2 -8 -11 -11 -11 -6 -5 -4 -3 -5 -7 -5 -7 -6 -3 3 4
-2 -3 -5 -16 -18 -21 -20 -26 -29 -25 -20 -3 5 5 7 5 4 7 7 7 -1 -7 -8 -5 -4 -6 -7 -8 -11 -1 -5 -9 -10 -12 -8 -6 -4 -3 -3 -3 -6 -6 -3 1 3 4 4
3 2 0 -1 -4 -12 -22 -17 -22 -29 -29 -22 -11 2 4 6 5 4 6 7 3 -5 -9 -7 -3 -5 -7 -13 -14 -1 -3 -6 -8 -10 -8 -6 -4 -3 -3 -3 -4 -3 -0 2 3 3 4
3 3 3 2 1 0 -4 -18 -14 -18 -28 -28 -22 -8 1 4 5 5 3 7 6 -2 -8 -8 -3 -3 -9 -14 -15 -1 -1 -2 -4 -7 -6 -5 -4 -3 -3 -3 -3 -4 -1 2 1 3 3
1 2 3 3 2 2 2 -1 -11 -17 -20 -26 -26 -22 -7 1 4 4 3 6 7 -0 -8 -6 -4 -3 -9 -13 -15 -4 -1 -3 -2 -3 -4 -4 -4 -3 -2 -2 -2 -1 -2 -2 -2 3 3
0 1 1 2 3 3 2 3 -1 -11 -15 -22 -25 -24 -17 -1 3 0 3 4 6 -3 -4 -1 -0 -1 -7 -9 -4 -8 -5 -4 -2 -2 -3 -2 -2 -1 -1 -2 -2 1 -0 -1 -1 2 3
0 0 0 1 1 3 3 2 2 -1 -8 -19 -24 -26 -22 -3 5 5 7 4 -2 -0 4 -1 -1 -5 -12 -9 -3 -4 -3 -2 -2 -2 -0 1 1 2 -0 -1 -2 -1 0 0 -1 -3 3
0 0 -0 -1 -2 1 3 3 2 2 1 -6 -19 -23 -25 -7 4 7 7 5 1 4 5 -2 -2 1 -0 -0 2 -2 -3 -2 -2 0 1 1 3 0 -1 -0 1 0 0 0 -1 -3 -1
-6 -1 -0 -1 -1 -3 0 3 2 2 2 2 -1 -11 -23 -9 3 5 6 5 4 5 6 2 -3 -2 -3 -2 -0 -1 -3 -3 -2 1 2 2 -1 0 1 -0 1 0 0 0 0 -1 -4
-2 -2 -2 -1 -1 -1 -3 0 3 2 2 2 3 -1 -8 -4 1 0 4 5 2 6 4 0 1 0 -1 -1 1 -4 -3 -3 -1 -0 1 1 -0 -0 1 1 -0 1 -2 -0 0 0 0
-0 -0 -1 -1 -1 -1 -1 -4 0 2 2 2 2 3 -3 3 4 4 4 4 4 5 3 -4 4 1 1 -1 -4 -1 -3 -3 1 1 1 1 1 1 2 1 -1 0 -0 0 1 1 1
-1 -2 -2 -1 -0 -1 -1 -3 -4 2 1 1 2 3 0 4 3 2 5 6 5 7 4 -5 3 3 4 -0 -4 -3 -3 -4 -3 1 0 -1 -1 0 1 -1 -1 -1 -0 0 1 2 4
0 -1 -1 -1 -0 0 -1 -1 -5 -3 1 1 1 2 2 2 5 1 5 6 8 8 -2 -3 3 0 -0 -2 -3 -3 -2 0 1 2 3 0 1 -1 -0 0 0 -0 1 3 5 6 5
0 0 -0 -1 -0 0 1 -0 -2 -5 -1 2 0 2 2 2 4 4 6 6 7 3 1 -1 -1 -1 -0 -3 -3 -3 -2 -1 -3 -3 -0 0 -0 0 1 0 1 1 1 6 4 5 3
0 1 1 0 -0 -1 1 1 -1 -4 -3 1 0 1 2 1 4 5 5 7 5 4 2 -0 -3 0 -1 -3 -3 -2 -1 -1 -2 -1 -0 2 1 -0 0 0 -0 1 2 0 5 5 6
-2 -2 1 1 1 0 1 1 -1 -3 -5 0 0 1 1 1 3 4 5 5 5 2 3 4 -0 -0 1 -2 -1 -1 -1 -3 -3 -2 -2 1 0 1 1 1 1 0 -0 3 3 5 6
0 -2 -3 0 1 1 1 1 0 -2 -5 -0 0 1 0 1 4 5 4 4 2 2 2 3 6 6 0 -0 -1 -0 -1 -4 -4 -3 -3 0 -0 -1 2 2 1 2 2 1 1 2 3
1 1 -2 -5 -1 1 1 1 1 -2 -5 0 1 1 0 -0 3 3 3 2 1 1 2 3 4 5 6 -0 -0 -0 -1 -2 -5 -2 -1 0 2 2 0 -0 -1 -0 2 1 5 3 3
-3 -4 -0 -2 -6 1 1 1 1 -2 -3 1 0 -1 -0 -1 3 3 1 2 1 1 2 3 4 4 4 2 -1 -1 -1 -4 -4 -2 1 2 1 1 -1 -1 -0 1 0 0 1 2 3
-2 -2 -2 -3 -6 -2 1 1 1 -2 -4 0 1 1 2 2 1 0 2 2 2 1 2 2 4 4 3 3 1 -1 -0 -1 -3 -3 -3 -2 1 1 0 -0 0 3 1 1 2 5 4
-0 -1 -1 -2 -5 -4 0 1 1 -1 -3 0 1 0 0 3 1 1 1 1 2 3 1 2 3 3 4 4 3 1 1 3 2 1 1 1 2 1 -1 -3 -1 0 1 1 1 2 4
0 -0 0 -1 -3 -3 -0 1 1 -1 -2 0 1 -0 1 1 -0 1 1 2 1 1 1 2 3 3 2 5 3 3 2 3 3 2 2 1 2 2 1 0 -0 1 -0 1 1 -0 0
0 -0 -0 -0 -2 -2 -0 1 0 -0 -1 -0 0 -2 -2 1 1 0 0 1 1 1 0 -0 1 2 4 3 1 1 1 0 2 3 3 2 3 3 3 0 -0 3 2 1 0 0 1
0 -0 -1 0 -2 -1 1 1 0 -1 -3 -0 -0 -1 -0 1 1 -0 -1 -0 0 1 1 -0 0 1 -0 -1 -0 1 1 2 3 3 2 3 3 2 4 2 5 1 -2 -2 0 -0 -1
-1 0 0 -1 -1 -1 1 0 -0 -1 -2 0 0 -0 -1 1 1 0 -0 -0 0 0 1 -0 2 1 2 -1 2 5 5 3 3 3 3 2 3 4 6 4 2 -1 -1 -1 -0 -3 -3
-1 -2 -1 -0 -0 -2 0 0 -0 -1 -1 0 -1 -0 -1 1 1 0 1 -1 1 1 1 1 1 1 -0 3 2 3 8 5 5 4 1 1 1 5 3 5 6 2 -2 -4 -4 1 -3
-1 -1 -1 0 -1 1 0 0 -0 -1 -3 -0 -0 -1 1 2 -0 1 1 1 -1 1 2 2 1 1 1 3 5 5 5 5 6 6 5 4 3 4 3 6 4 -0 -3 -5 2 1 -4
-1 -1 -0 -1 1 0 0 -0 -0 -1 -2 -0 -0 -0 1 1 2 2 2 1 0 -0 1 1 2 3 5 4 5 5 5 5 5 4 5 5 5 5 3 5 5 -2 -4 0 1 -5 -5
-1 -1 -1 1 0 -0 -0 -0 -2 -2 -1 -0 -0 -0 0 0 1 1 2 3 1 -0 -1 1 0 1 2 5 4 4 5 4 5 6 2 6 4 5 4 5 2 -3 -2 -5 -5 -6 -5

GFSGBSN_850_dewp_048.txt.gz
Dewpoint
2 -1 -3 -6 -11 -14 -24 -23 -25 -27 -25 -21 -10 -1 1 3 3 6 6 6 7 5 -5 -9 -9 -5 -6 -3 -9 -11 -2 -7 -8 -9 -6 -5 -4 -4 -6 -6 -5 -5 -6 -6 -4 -0 3
3 4 3 0 -2 -4 -9 -18 -23 -25 -27 -27 -24 -12 1 3 3 4 3 4 4 7 0 -7 -9 -6 -2 -4 -14 -9 -3 -9 -10 -8 -7 -5 -3 -3 -3 -4 -5 -5 -5 -2 0 2 3
0 2 3 3 3 1 1 -5 -17 -24 -25 -27 -28 -25 -15 0 3 3 6 -0 2 6 5 -4 -9 -6 -3 -5 -14 -5 -6 -8 -10 -5 -6 -6 -3 -2 -3 -4 -3 -4 -2 -0 1 2 2
1 1 2 2 3 3 2 2 -2 -13 -18 -25 -27 -28 -25 -12 -1 3 5 0 -2 4 6 1 -8 -4 -1 -9 -14 -4 -4 -4 -7 -9 -6 -4 -4 -2 -2 -2 -4 -4 -3 -3 1 2 3
1 1 0 1 2 3 3 3 2 1 -9 -15 -21 -27 -27 -24 -9 2 3 -3 -3 3 5 2 -6 -3 -2 -9 -12 -11 -1 -1 -2 -5 -6 -5 -3 -2 -2 -4 -5 -4 -5 -5 -4 1 2
1 1 0 -1 0 1 2 3 3 2 1 -7 -13 -18 -26 -25 -18 -3 -1 -2 1 1 2 -0 0 1 -4 -8 -5 -9 -2 -2 -1 -1 -2 -2 -2 -2 -2 -4 -5 -6 -4 -5 -4 1 2
1 1 0 0 0 -0 -0 1 3 3 2 1 -6 -10 -16 -24 -20 -4 -1 5 5 4 3 2 1 -1 -9 -5 -3 -2 -4 -3 -1 -2 -1 -0 -0 -1 -4 -4 -5 -3 -3 -4 -3 -2 1
-4 -7 -3 -0 0 0 -1 -3 1 3 2 2 2 -0 -6 -17 -18 -3 4 5 5 4 2 2 -2 1 -1 -5 0 -1 -3 -1 -1 -1 -1 1 1 -2 -2 -1 -1 -1 -2 -3 -2 -3 -2
0 0 -1 -7 -4 -1 -0 -1 -4 1 3 2 2 2 2 -7 -5 -6 4 3 5 6 4 1 1 -1 -1 -0 -1 -4 -2 -2 -2 -2 -0 -1 -2 -1 -1 -0 -0 0 -1 -2 -2 -2 -3
-2 -2 -1 -0 -1 -3 -2 -1 -1 -4 2 3 2 2 3 -1 -1 2 3 -1 4 3 5 -3 -0 -1 1 -1 -0 -4 -2 -4 -3 -3 -3 -2 -3 -1 -0 -0 -1 0 -2 -2 -1 -1 -2
-1 -0 -1 -2 -2 -0 -3 -1 -1 -1 -1 3 2 2 2 2 5 5 5 4 5 6 1 -6 1 1 2 -3 -4 -2 -3 -3 -3 -2 -1 -2 0 1 -0 -1 -1 -2 -2 -1 -1 -1 -1
0 0 -0 -0 -1 -2 -1 -1 -1 -1 -3 -0 2 1 2 2 4 5 5 6 5 5 3 -5 2 3 2 0 -4 -3 -2 -3 -4 -3 -2 -3 -1 -1 -2 -1 -1 -1 -0 -0 0 -0 3
-0 -0 0 0 0 0 -0 -2 -1 -1 -1 -4 2 1 1 3 3 4 5 7 5 3 -5 -5 2 2 -1 -0 -3 -3 -2 -1 -2 0 -0 -2 -2 -3 -1 -0 0 -0 0 3 4 4 4
0 0 -0 -0 0 0 0 -0 -1 -0 -1 -5 -2 1 -0 2 3 3 6 7 3 -8 -3 -3 0 1 -0 -3 -3 -3 -3 -2 -4 -4 -4 -1 -0 -2 -2 -3 -1 -0 -0 3 5 4 2
0 1 1 0 0 0 1 0 0 -1 -0 -2 -5 1 0 -0 1 4 6 6 -2 -4 -4 -3 -2 3 1 -3 -4 -2 -3 -3 -3 -3 -3 -2 -3 -3 -1 -1 -2 1 2 -1 3 5 5
1 1 1 1 1 0 0 1 0 0 0 -1 -3 -0 1 -0 -0 3 5 3 -4 -5 -3 -1 -3 0 3 -3 -2 -3 -2 -4 -3 -4 -6 -2 -2 -0 1 0 0 0 -1 3 2 5 4
3 2 2 1 2 0 1 1 1 1 1 -1 -2 1 1 0 -0 2 4 2 -3 -3 -1 2 1 -4 0 -1 -4 -2 -3 -3 -4 -3 -5 -4 -2 2 2 2 0 2 2 1 1 2 3
1 -1 -2 -1 1 1 -2 1 1 1 1 -1 0 2 1 -0 2 2 3 1 -4 -4 1 2 3 3 3 -0 -1 -3 -3 -5 -5 -4 -1 -3 -2 -0 -1 -1 -1 -3 -2 0 2 1 2
-3 -3 -3 -5 0 1 -1 -0 1 1 1 -0 -0 1 0 -0 1 3 -1 1 -2 -3 -1 2 3 3 3 3 0 -2 -2 -4 -4 -3 -2 -2 -1 1 -0 -1 -1 -1 -1 -2 -0 1 1
-2 -1 -1 -4 1 1 1 -2 1 1 0 0 0 2 2 1 -2 -1 1 0 -1 -3 -3 1 1 2 3 4 2 1 -2 -1 -2 -4 -2 -2 -3 -2 0 -3 -4 -0 -1 -2 -1 3 1
-2 -1 -0 1 -3 -1 1 -1 -2 1 0 0 0 1 1 2 2 -1 -1 -1 -0 -2 -2 -1 2 2 3 4 2 2 -1 2 -0 -1 -3 -1 -1 -2 -4 -5 -6 -5 -5 -3 -1 -1 0
0 -1 -1 1 0 -2 -2 0 -2 2 1 -0 -0 -0 -1 -2 -1 -2 0 -0 -2 -3 -4 0 0 1 2 2 1 4 2 2 1 3 -0 -0 -1 -1 -1 -3 -3 -4 -5 -5 -3 -4 -2
-0 1 -0 -0 0 -1 -2 -1 -1 2 1 -0 -0 -1 -3 -2 -1 -0 1 -1 -2 -3 -3 -5 -1 -1 2 1 0 2 2 1 1 1 3 2 0 1 0 -0 -1 4 1 -2 -3 -1 -0
-2 -1 -1 1 -0 0 -1 -2 -1 1 0 -0 -1 -1 -0 -1 0 -0 -2 -3 -2 -2 -1 -3 -3 1 -0 1 1 1 -1 1 2 2 1 3 3 3 3 4 9 -2 -2 -3 -2 -2 -2
-1 -1 -0 0 -0 -0 -0 -2 -0 1 0 -0 -1 0 -1 2 -2 -1 -2 -3 -4 -3 -1 -3 -0 -1 -1 -1 -1 -1 2 1 3 2 4 3 3 5 9 4 -0 -1 -1 -1 0 -1 -4
-2 -2 1 -0 -0 0 -0 -1 -2 1 -0 0 -1 -1 -0 1 -2 -4 -1 -2 -1 0 -0 -2 -1 1 1 2 3 3 -1 -4 1 5 2 3 3 6 5 5 10 -1 -3 -3 -3 2 -5
-1 -0 0 0 0 0 -0 -0 -1 0 -0 0 -1 -1 -1 -1 -4 -3 -0 0 -2 -2 0 -1 2 3 2 4 7 5 2 -1 3 6 7 5 5 7 6 7 3 -1 -3 -4 2 2 -4
-1 -0 -0 -0 -0 0 -1 -2 0 -0 -1 -0 -0 -1 -1 -0 2 0 -1 -1 -2 -1 2 -2 2 3 4 5 5 5 7 2 2 1 5 5 6 8 6 9 8 -2 -3 -1 -1 0 -2
-1 -0 -1 -1 -1 -1 -1 0 -0 -1 -0 -0 0 0 0 1 1 1 2 2 1 -3 -2 -1 -3 -1 0 2 4 2 8 7 1 5 1 5 4 5 3 4 1 -2 -3 -3 -0 -2 -1

GFSGBSN_850_dewp_051.txt.gz
Dewpoint
0 4 4 3 1 -3 -6 -13 -24 -26 -26 -26 -26 -24 -22 -11 -2 2 3 2 1 4 3 6 -2 -10 -9 -0 -4 -7 -4 -3 -8 -8 -6 -5 -6 -7 -7 -10 -9 -7 -8 -8 -6 -3 1
1 -0 2 3 4 3 2 -1 -4 -21 -25 -25 -26 -28 -27 -25 -13 -0 2 5 1 0 2 4 4 -7 1 -1 -6 -9 -13 -5 -4 -4 -7 -6 -5 -5 -5 -7 -7 -7 -6 -6 -4 -2 -2
1 2 0 0 3 3 4 3 1 -2 -15 -22 -23 -25 -27 -28 -25 -16 -5 -3 -3 -1 -1 1 6 -1 1 -3 -4 -4 -3 -3 -4 -5 -6 -6 -4 -4 -5 -6 -8 -6 -5 -5 -3 -2 -2
0 -0 -1 0 1 2 3 4 3 2 0 -8 -12 -17 -23 -27 -27 -22 -11 -5 -5 -3 -5 -1 4 -1 1 -3 -6 -2 -1 -3 -4 -5 -5 -5 -4 -3 -4 -5 -6 -8 -7 -5 5 -2 -1
2 1 1 1 1 0 1 2 3 3 3 2 -3 -9 -13 -23 -27 -25 -19 -11 -7 -7 -7 -1 3 4 -0 -2 -6 -6 -0 -3 -4 -4 -4 -4 -4 -5 -5 -5 -6 -7 -7 -4 1 -4 -1
-3 -1 1 1 1 0 0 -0 1 3 3 3 2 -1 -6 -14 -23 -25 -19 -11 -6 -5 -0 1 4 4 -0 -5 -8 -9 -1 -2 -2 -3 -3 -3 -5 -4 -4 -5 -4 -7 -7 -7 -8 2 -3
1 1 -3 -1 2 1 0 0 -1 -0 2 3 2 2 -0 -2 -16 -23 -18 4 5 6 5 -2 -1 -5 -7 -6 -3 -7 -5 -0 -3 -3 -2 -4 -2 -2 -3 -5 -6 -7 -7 -8 -6 -3 -2
0 1 0 -1 -5 -4 -0 1 -0 -2 0 3 2 2 2 2 -4 -10 -4 3 1 5 1 -1 1 -1 -1 -2 -3 -6 -2 -2 -3 -1 -3 -2 -0 -4 -4 -4 -4 -5 -4 -6 -4 -4 -3
0 0 0 -0 -0 -0 -5 -4 -0 -1 -2 0 3 2 2 2 2 -9 3 3 4 5 2 -6 -5 -3 -4 -2 -3 -6 -3 -2 -2 -1 -3 -1 -3 -3 -3 -3 -4 -4 -3 -3 -2 0 -6
-1 -1 -0 -1 -1 -0 -0 -0 -4 -6 -1 -3 1 3 2 2 -1 0 2 2 2 7 1 -9 -1 -2 -2 -3 -2 -5 -5 -4 -3 -2 -3 -2 -5 -2 -2 -2 -5 -3 -5 -3 -4 -3 -3
-0 -0 -0 -0 -0 -0 -1 -2 -1 -3 -1 -1 -4 2 2 1 4 4 3 3 6 7 -6 -9 -4 -1 -2 -2 -6 -4 -6 -6 -3 -3 -4 -3 -3 -2 -1 -2 -4 -3 -3 -3 -4 -2 -2
0 -0 -1 -0 0 0 -0 -0 -2 -1 -3 -1 -2 -1 2 1 1 4 6 7 8 3 -3 -7 -1 -0 1 -2 -5 -7 -5 -6 -7 -5 -5 -5 -5 -4 -3 -4 -4 -4 -2 -2 -2 -2 2
1 0 -0 -0 -0 0 1 1 0 -2 -1 -1 -1 -3 2 2 1 4 6 6 2 -2 -13 -8 -1 -0 -0 -0 -4 -6 -4 -4 -4 -1 -1 -3 -3 -4 -3 -2 -2 -2 -1 3 4 2 4
1 1 1 0 -0 -0 -0 1 1 0 -2 -1 -1 -2 -0 2 2 3 5 6 -0 -9 -9 -5 -5 -1 1 -2 -2 -3 -2 -4 -5 -4 -2 -1 -1 -3 -3 -3 0 -1 -1 4 7 6 3
1 1 1 1 1 0 -0 -0 0 1 -0 -1 -1 -1 -2 2 2 4 3 6 0 -8 -13 -10 -4 1 0 -3 -3 -3 -3 -4 -5 -5 -3 -2 -2 -6 -5 -4 -4 -1 0 -2 2 4 5
1 1 1 1 1 0 1 0 1 1 1 -1 1 0 0 0 2 3 4 5 -2 -9 -14 -9 -6 -1 0 -2 -3 -2 -3 -6 -5 -7 -6 -5 -2 -5 -4 -4 -4 -2 -1 1 2 6 6
1 1 1 2 2 1 1 1 1 1 1 0 1 1 -1 1 2 3 3 2 -0 -7 -11 -9 -6 -5 -1 -0 -4 -3 -3 -5 -6 -6 -6 -5 -3 -2 -1 0 -1 0 2 0 0 1 7
0 2 1 2 1 2 2 2 2 1 1 1 1 2 -0 0 2 2 2 0 -4 -3 -6 -6 -5 -0 -6 -2 -1 -4 -3 -5 -6 -5 -2 -5 -3 1 1 -3 -4 -3 -1 0 3 4 2
-1 -1 -2 -2 -0 1 1 1 2 2 1 1 1 1 -0 1 2 3 0 -2 -7 -4 -5 -5 -2 -1 -2 -1 1 -2 -4 -6 -5 -3 -1 -3 -2 1 -0 -0 -1 0 -1 -1 0 1 3
-2 -2 -2 -2 -2 -2 -2 -1 1 2 1 1 1 2 2 2 -0 -0 -0 -1 -3 -5 -5 -6 -2 -3 -2 2 -0 1 -2 -2 -5 -4 -4 -2 -2 -1 1 -1 -2 -1 -2 -3 -1 5 2
-3 -3 -2 -2 -2 -2 -2 -3 1 1 1 1 0 1 1 2 2 -1 -2 -4 -6 -5 -4 -5 -2 1 -2 -1 -1 1 0 2 -1 -2 -2 0 -0 -2 -4 -5 -5 -4 -4 -4 -3 -2 1
-3 -3 -1 -1 -0 -0 -1 -1 -2 1 1 1 -0 -0 -1 -1 1 -0 -1 -3 -5 -7 -5 -3 -2 2 0 -1 -2 1 1 0 -1 -0 -1 -2 1 -1 -2 -5 -5 -5 -6 -7 -7 -5 -4
-1 -1 -1 -1 -1 -1 -0 -1 -0 2 1 1 -0 -2 -3 -2 1 0 0 -3 -5 -8 -7 -8 -5 -3 1 -1 1 2 2 1 2 2 0 2 2 1 2 -3 -3 2 -4 -5 -6 -7 -5
-0 -1 -1 -1 -1 -1 -0 -1 -0 1 0 0 -1 -3 -1 0 2 -0 -2 -3 -5 -8 -5 -8 -9 -5 -3 0 1 0 0 -2 1 1 0 3 2 2 5 6 7 -1 -5 -5 -4 -5 -6
0 -1 -2 -1 -2 0 1 -0 0 2 0 1 -0 -1 -1 3 -2 -1 -3 -3 -6 -7 -4 -6 -8 -8 -6 -0 1 1 3 2 2 2 1 1 4 6 8 5 -1 -3 -3 -3 -3 -4 -7
-1 -0 -1 -1 -1 1 1 0 0 -1 0 1 0 -1 0 1 -1 -4 -3 -4 -3 -3 -3 -3 -6 -3 -0 2 1 1 -1 -5 -4 1 1 -0 3 7 6 6 7 0 -4 -5 -5 2 -6
-2 -2 -1 -1 -0 -1 -0 -0 -0 0 0 1 1 -1 1 0 -4 -3 -1 -2 -5 -3 1 -1 -2 0 -1 4 6 2 0 -6 -3 4 8 6 6 9 8 7 2 -4 -5 -5 3 2 -5
-1 -1 -1 -1 0 0 0 -0 -0 0 0 1 1 -1 1 1 -1 -1 0 0 -4 -4 -0 -1 -1 3 3 5 3 -0 3 -1 -2 -4 5 6 6 9 7 8 9 -2 -2 -0 -1 -3 -2
0 0 1 1 0 -0 -0 -0 -0 0 1 0 1 0 0 2 2 1 3 1 -0 -2 -4 -3 2 0 -0 0 1 -0 6 7 -0 3 -5 5 5 6 4 4 1 -1 -2 -3 -4 -3 -1

GFSGBSN_850_dewp_057.txt.gz
Dewpoint
-2 -1 -2 -3 -3 -3 -7 -7 -2 4 2 -5 -14 -20 -24 -25 -27 -29 -29 -30 -28 -23 -11 -10 -8 -6 -8 -0 -0 -3 -1 -4 -3 -7 -11 -10 -5 -9 -6 -8 -7 -7 -9 -9 -8 -9 -4
1 1 0 -2 -2 -6 -7 -9 -2 0 3 3 -0 -8 -19 -23 -26 -28 -29 -31 -31 -27 -20 -12 -7 -5 -1 5 -11 -1 -4 -5 -7 -5 -11 -6 -6 -7 -6 -4 -5 -6 -7 -8 -9 -8 -6
-0 1 2 0 -2 -3 -4 -5 -7 -6 0 3 3 2 -3 -16 -22 -26 -28 -30 -32 -29 -17 -11 -6 -1 1 -14 -14 -2 -2 -1 -3 -4 -9 -5 -7 -8 -6 -3 -4 -4 -4 -6 -8 -5 -1
-3 -2 -3 -1 1 2 1 0 -1 -3 -4 1 2 3 3 -0 -12 -22 -26 -29 -32 -30 -21 -12 -7 -1 4 -28 -25 -9 -5 -3 -2 -4 -4 -5 -7 -7 -5 -5 -4 -3 -5 -4 -7 -3 0
-1 0 -0 1 1 -1 1 1 1 0 -1 -2 0 2 3 3 -0 -13 -23 -29 -31 -29 -19 -6 -3 2 4 -3 -6 -16 -4 -3 -2 -3 -4 -6 -6 -5 -4 -2 -2 -3 -2 -4 -5 -3 2
-0 1 1 0 1 1 1 -1 1 2 1 -0 -2 -1 2 2 2 -2 -16 -27 -31 -25 -2 6 5 4 -3 -10 -6 -4 -6 -5 -3 -4 -5 -6 -5 -3 -3 -3 0 -1 -2 -5 -4 -2 3
1 1 -0 1 -0 0 -0 -0 -1 -3 1 1 0 -1 -0 1 2 1 -7 -21 -4 4 7 5 2 -12 -11 -9 -2 -6 -3 -5 -3 -4 -4 -4 -2 -1 -3 -3 -3 -3 -2 -3 -5 -3 -2
-0 0 -0 -0 0 1 1 1 1 -0 -4 -2 1 -0 -2 1 1 2 -0 -8 -6 3 4 3 3 5 2 -3 1 -2 -7 -5 -2 -0 -4 -2 -1 -3 -4 -4 -3 -1 -2 -3 -5 -1 -2
-1 -0 0 0 0 0 0 0 1 1 0 -2 -4 -1 -2 -3 0 0 -3 -10 -21 -1 4 -1 -3 -2 -5 -7 2 -2 -4 -7 -1 -0 -1 -1 -1 -4 -3 -3 -2 -2 -2 -3 -3 -1 -3
-1 -0 -0 0 0 0 1 1 1 1 1 1 -0 -3 -7 -2 -1 4 1 3 2 3 6 0 -8 -5 -5 -7 -1 -8 -3 -7 -1 -0 -1 -1 -3 -2 -2 -1 -2 -1 -3 -5 -4 -1 2
-0 -0 -1 -0 0 0 1 1 -0 -0 -0 -1 1 -0 -4 -2 0 2 5 5 5 4 -3 -10 -10 -11 -10 -7 -6 -4 -6 -3 -2 -1 -1 -1 -1 -1 -1 -1 -2 -2 -1 -1 -1 -1 -3
-1 -1 -1 -0 0 0 1 1 1 -0 -1 -1 -1 -1 -2 -1 -2 -5 1 4 6 6 5 -7 -3 -4 -7 -8 -7 -5 -5 -3 -5 -3 -3 -2 -5 -4 -3 -3 -3 -3 -2 -2 -0 -0 3
-2 -1 -1 -0 -0 0 1 1 1 1 -0 0 -1 -1 -1 -1 -2 -1 4 3 6 6 -15 -15 -0 -2 -1 -4 -7 -6 -4 -4 -1 1 1 -1 -2 -4 -4 -3 -3 -3 -1 4 5 5 5
-2 -1 -1 -0 -0 0 1 1 1 1 1 1 1 -1 -1 -2 -3 1 3 5 6 -5 -6 -10 -9 -5 1 -1 -2 -4 -4 -1 -3 -3 -0 1 3 -2 -4 -3 -1 -1 0 6 6 8 6
-1 -1 -0 0 0 0 1 1 1 2 1 1 1 1 -0 -1 -3 1 3 5 1 -3 -9 -10 -13 -9 -3 -0 -0 -1 -1 -1 -2 -4 -1 1 1 -4 -5 -4 -3 1 2 0 3 6 7
-1 -1 0 0 0 0 1 1 1 1 1 1 1 2 0 -1 -2 1 3 4 1 -2 -6 -7 -7 -6 -4 -2 1 1 1 -1 -1 -3 -5 -1 2 -3 -4 -5 -3 -2 -1 3 3 7 8
-2 -1 -0 0 0 0 1 1 1 1 1 2 2 2 1 -1 -0 2 3 1 -1 -2 -4 -5 -7 -7 -7 -5 -4 1 1 -2 -2 -2 -4 -4 -1 1 -2 -1 -1 -0 -0 1 3 5 7
-2 -1 -1 -0 0 1 1 1 1 1 2 2 2 2 1 -1 2 1 1 -0 -2 -4 -3 -2 -4 -4 -3 -3 -2 -2 3 3 -3 -3 -1 -3 -1 1 -0 -2 -3 -3 -1 0 7 7 6
-2 -1 -1 -0 -0 0 1 1 1 2 2 2 2 1 1 -0 2 1 0 0 -1 -1 -2 -3 -3 -5 -5 -3 -1 5 4 2 2 2 -2 -2 -1 3 2 -1 -3 -2 -2 -1 1 5 6
-1 -1 -1 -0 -0 0 1 1 1 1 2 2 1 1 1 2 -0 -1 0 1 1 -2 -2 -3 -3 -4 -5 -3 -3 4 4 3 4 4 -1 -2 -1 -1 3 2 -0 1 -1 -2 1 5 4
-1 -1 -1 -0 -0 0 1 2 1 0 2 2 1 0 1 2 1 0 -2 -1 0 1 -3 -4 -3 -2 -2 -2 -1 0 4 6 5 4 1 0 0 -1 -1 -1 -0 1 1 -1 0 2 5
-1 -1 -1 -0 -0 1 1 1 -0 -2 0 3 -0 1 1 -2 0 1 0 0 -0 -2 -2 -2 -3 -3 -3 -2 -3 0 5 6 6 6 5 2 2 0 0 -1 0 2 1 0 -1 1 2
-1 -1 -1 -0 0 -0 -0 -0 -1 -2 -1 2 1 0 -0 -0 0 1 1 -0 0 -2 -2 -4 -3 -3 -3 -3 -4 5 5 6 6 7 6 6 3 4 3 0 0 3 0 -0 0 -2 -1
-1 -2 -3 -4 -4 -3 -2 -1 -1 -2 -2 -0 1 1 1 3 1 1 -0 -1 -0 -1 0 -3 -4 -3 -5 -4 3 4 3 4 4 4 6 7 6 4 5 3 6 1 -2 -3 -2 -2 -4
-3 -3 -2 -2 -2 -2 -2 -2 -3 -3 -2 -0 0 1 1 2 1 -1 -1 -1 -2 -2 -1 -1 -3 -5 -5 -7 -1 4 5 4 4 4 5 6 7 6 6 5 3 1 -2 -2 -1 -1 -4
-1 -1 -1 -1 -0 0 0 -1 -1 -2 -3 -1 0 -0 1 1 2 -1 -1 -1 -1 -0 -1 -2 -3 -3 -3 -4 1 2 4 5 5 4 4 4 6 6 6 7 6 3 1 -1 -2 2 -3
0 -0 -1 -1 -1 -1 -1 0 0 -0 -2 -1 0 0 0 -0 1 -0 -1 -1 -2 -2 -1 -2 -2 -1 -2 -0 2 3 5 3 4 4 3 5 5 7 7 8 6 1 -1 -2 2 2 -2
-1 -2 -2 -2 -2 -1 -1 -1 0 1 0 -0 0 0 0 0 1 -0 -0 1 -1 -2 0 -1 0 0 2 1 1 2 1 2 2 1 4 5 6 6 7 8 8 3 2 -0 0 -3 -3
-1 -1 -1 -1 -1 -0 -1 -2 -1 1 0 -0 0 0 -0 1 2 1 1 0 2 -1 -0 -2 -1 -1 1 2 2 2 1 2 1 2 0 6 4 6 5 5 4 1 4 4 3 4 1

GFSGBSN_850_dewp_060.txt.gz
Dewpoint
2 1 -1 -3 -4 -6 -7 -6 -3 -2 1 -2 -8 -8 -13 -20 -23 -26 -30 -31 -32 -32 -31 -26 -21 -13 -11 -2 -11 -10 -10 -1 -2 -3 -5 -12 -6 -6 -8 -8 -7 -7 -6 -6 -8 -6 1
1 2 2 2 2 1 -1 -3 -4 -5 -3 -2 -0 -6 -7 -18 -12 -20 -27 -30 -30 -31 -30 -24 -15 -11 -2 4 -18 -9 -2 -2 -4 -5 -4 -9 -11 -6 -7 -6 -3 -4 -3 -4 -6 -7 2
-3 -2 0 -1 0 2 2 2 1 1 -1 -3 -3 0 -3 -11 -6 -15 -20 -26 -28 -28 -29 -23 -11 -5 4 -17 -24 -4 -1 -1 -2 -0 -3 -6 -11 -4 -7 -4 -4 -4 -4 -5 -6 -7 1
1 -4 -3 -1 -3 -4 -6 -2 0 1 1 -1 -2 -3 1 -0 -2 -13 -19 -19 -26 -28 -27 -22 -10 -1 2 -30 -29 -27 -23 -3 -3 -2 -0 -7 -6 -4 -5 -5 -4 -3 -4 -3 -6 -8 -1
2 1 -1 -5 1 -2 -4 -4 -7 -2 1 1 -1 -3 -4 -1 1 -2 -9 -22 -22 -27 -28 -15 -2 1 0 -9 -8 -10 -18 -9 -5 -2 -3 -4 -4 -4 -4 -3 -2 -2 -1 -2 -3 -6 -2
1 1 0 -0 -0 1 -1 -0 0 -1 -3 1 1 1 -1 -3 -0 -2 -10 -22 -25 -28 -27 -6 6 4 -7 -17 -6 -2 -3 -10 -3 -3 -2 -2 -5 -4 -3 -2 1 -1 -1 -2 -2 -5 3
1 1 0 -0 -2 -2 -0 -0 1 0 -0 -2 -4 1 0 -2 -2 -1 -5 -11 -10 4 6 4 5 -2 -9 -8 -5 -3 -3 -6 -4 -3 -2 -5 -3 -2 -2 -3 -3 -3 -2 -1 -3 -2 2
0 1 1 -1 -1 -1 -1 -0 0 1 1 1 -0 -4 1 -0 -5 -2 -2 -3 -1 2 1 -4 1 4 -0 1 3 -7 -2 -2 -3 -1 -3 -3 -2 -4 -3 -3 -2 -2 -1 -1 -4 -2 -2
-0 0 -1 -1 -1 -1 -0 -0 -0 0 0 1 1 0 -3 -4 -8 -5 0 -2 3 5 3 -0 -4 -2 -5 -6 2 -4 -3 -3 -3 -0 -2 -2 -2 -4 -3 -2 -2 -2 -2 -1 -2 -4 -2
-1 -0 -0 -1 -1 -1 -0 -0 -0 0 1 0 0 1 0 -1 -12 -3 2 4 3 5 4 -1 -3 -7 -4 -3 1 -14 -11 -4 -4 -1 -0 -2 -4 -3 -1 -2 -2 -0 -2 -2 -2 -2 1
-1 -0 -2 -1 -1 -1 -0 -0 -1 0 1 -0 -0 -1 1 -0 -7 0 3 3 4 3 -16 -16 -6 -11 -5 -5 -7 -5 -21 -3 -4 -1 -0 1 -1 -1 -1 -1 -2 -1 -1 -1 -1 -1 -2
-1 -2 -2 -2 -1 -1 -1 -1 0 1 1 -0 -1 -1 -0 -0 -4 -9 -4 1 5 5 2 -4 -7 -5 -4 -6 -7 -4 -3 -4 -3 -2 -1 -1 -3 -3 -2 -2 -2 -2 -2 -1 0 0 4
-2 -3 -2 -2 -1 -2 -1 -1 0 1 1 0 -0 -1 -0 -1 -2 -3 1 3 5 5 -9 -14 -1 -4 -6 -5 -7 -7 -5 -1 0 0 -1 -2 -1 -3 -3 -2 -2 -2 -1 3 4 4 5
-3 -4 -3 -3 -2 -1 -2 -1 0 1 1 1 1 0 -0 -1 -2 -2 2 5 4 -2 -8 -10 -9 -11 0 -4 -6 -6 -4 -4 -2 -2 -1 -0 3 -2 -3 -2 -1 -1 0 5 6 7 5
-4 -4 -4 -3 -2 -1 -0 0 0 1 1 1 1 2 1 -2 -2 -2 2 4 1 -2 -6 -7 -10 -10 -10 -3 -1 -5 -3 -3 -4 -3 1 2 1 -3 -3 -3 -3 0 1 -0 3 5 7
-6 -6 -4 -2 -2 -1 0 0 0 1 1 1 2 2 1 -2 -1 -1 2 3 1 -3 -4 -3 -4 -7 -5 -6 -1 2 2 -1 -2 -3 -3 -1 2 -2 -3 -4 -3 -2 -0 3 4 6 7
-5 -5 -3 -2 -1 -1 0 0 0 1 1 1 2 2 1 0 -0 1 2 1 -1 -3 -2 -2 -3 -4 -4 -4 -3 -0 3 0 -0 -1 -3 -2 -1 -0 -1 -1 -1 -0 1 2 3 5 6
-5 -4 -3 -2 -2 -2 -1 0 1 1 1 2 2 2 1 1 1 0 1 -1 -2 -2 -3 -2 -2 -2 -2 -3 -2 -2 -1 -1 1 4 2 -1 -0 1 -1 -3 -3 -3 -0 1 5 6 6
-4 -3 -3 -2 -2 -2 -1 0 1 1 1 2 2 1 1 1 1 1 -2 -2 -1 -1 -2 -2 -1 -2 -4 -4 -2 -1 0 -0 4 4 6 5 1 3 2 -2 -3 -2 -1 -1 1 4 4
-3 -3 -3 -2 -2 -2 -0 0 0 1 1 1 1 1 1 1 -0 -1 -1 -1 -0 -2 -2 -2 -1 -2 -2 -1 -3 -1 -0 1 3 4 5 5 5 3 2 1 -0 0 -0 -1 0 5 4
-3 -3 -2 -2 -1 -1 -0 0 0 1 1 2 0 0 1 2 1 0 -1 -2 -1 -0 -1 -2 -1 -1 -1 0 -1 -2 -1 5 4 5 5 6 8 3 1 -2 -2 0 0 0 -0 1 3
-3 -2 -1 -1 -1 -0 -0 -0 0 0 1 2 -0 1 1 -0 0 1 -0 -0 -1 -1 -1 -0 -1 -3 -4 -1 -1 -1 -2 -2 5 5 6 5 7 6 3 0 -2 -1 -0 0 -0 -0 1
-2 -1 -1 -1 -0 -0 -0 -0 0 0 1 2 1 1 1 0 1 2 1 -1 -1 -2 -2 -2 -2 -2 -2 -3 -5 -5 1 5 6 4 5 5 7 7 7 0 0 3 1 -0 1 1 1
-1 -1 -1 -1 -0 -0 -0 0 0 1 1 1 1 1 1 2 1 1 -1 -1 -1 -1 -1 -3 -4 -2 -3 -4 -1 4 4 4 5 5 4 5 5 6 7 3 7 1 -1 -1 -0 -0 -1
-0 -1 -2 -2 -2 -2 -1 -0 0 0 0 0 0 1 1 2 1 -1 -1 -1 -1 -2 -2 -1 -1 -2 -4 -3 0 -0 2 1 3 4 6 5 6 6 7 7 3 3 1 1 1 -0 -2
-3 -3 -3 -3 -3 -2 -2 -3 -3 -1 0 -0 -0 -0 0 1 2 -1 -1 -2 -1 -0 -1 -1 -2 -2 -2 -2 -1 -0 -0 2 4 6 5 4 4 5 6 7 8 2 0 -1 -2 2 -3
-3 -2 -3 -2 -1 -1 -2 -1 -3 -3 -2 -0 0 -0 -0 -1 1 1 -1 -1 -2 -1 -1 -2 -2 -2 -3 -0 1 2 1 -1 2 3 5 4 3 5 6 7 6 3 3 -2 3 1 -2
-0 0 -0 -0 -0 -0 -0 -0 -0 -1 -2 -2 -1 -0 -0 -0 -0 2 -0 -1 -1 -2 -0 -2 -1 -0 2 2 2 1 1 3 3 2 3 3 4 5 6 7 7 4 4 4 3 3 4
0 -1 -1 -1 -2 -1 -1 -1 -1 0 0 -1 -0 -1 0 -0 -0 0 1 1 -1 -2 -2 -2 -1 -1 0 2 1 0 0 -0 1 2 -1 4 3 4 4 4 2 4 3 3 3 2 2

GFSGBSN_850_dewp_063.txt.gz
Dewpoint
2 2 3 3 2 1 0 -2 -3 -3 -4 -4 -4 -6 -3 -9 -14 -22 -20 -21 -24 -28 -28 -28 -29 -26 -22 -5 -25 -17 -5 -7 -6 -3 -3 -7 -9 -5 -7 -9 -7 -7 -6 -5 -4 -5 -3
-1 -1 0 -1 0 2 2 2 2 1 0 -4 -4 -4 -4 -4 -7 -9 -16 -22 -19 -24 -26 -25 -27 -25 -3 3 -26 -19 -13 -11 -4 -2 -3 -4 -11 -6 -6 -6 -4 -4 -4 -4 -5 -5 5
1 1 -0 1 2 1 0 -1 1 1 1 1 -2 -3 -3 -5 -5 -6 -11 -16 -24 -20 -21 -23 -24 -16 0 -21 -29 -28 -6 -1 -0 -2 -3 -4 -5 -7 -5 -4 -5 -4 -4 -5 -6 -6 4
2 2 2 1 1 2 1 0 1 -2 -4 0 2 0 -2 -2 -5 -7 -10 -14 -20 -23 -19 -21 -23 -7 -1 -29 -28 -29 -28 -2 -1 -2 -1 0 -2 -5 -4 -5 -4 -4 -4 -3 -6 -7 -4
1 1 1 1 1 1 0 -1 -1 -1 -1 -3 -2 0 -1 -2 -4 -7 -9 -13 -16 -22 -22 -20 -17 -2 -1 -16 -15 -6 -5 -15 -12 -2 -3 -0 -1 -3 -4 -3 -2 -3 -3 -3 -3 -6 -4
1 1 1 1 1 1 -1 -4 -4 -4 -2 -1 -2 -5 -6 -3 -4 -8 -10 -11 -15 -19 -16 -18 1 1 -15 -21 -10 -2 -2 -2 -9 -8 -2 0 -1 -4 -3 -2 0 -1 -1 -2 -2 -4 1
0 0 0 0 -0 -1 -1 -3 -3 0 1 1 1 0 -1 -6 -4 -7 -11 -7 -8 3 3 -7 -0 -5 -10 -5 -5 -4 -2 -1 -6 -2 -0 -3 -2 -1 -3 -3 -3 -3 -2 -2 -3 -4 2
-0 -0 -0 -0 -0 -1 -1 -1 -1 -0 -1 -0 0 1 1 0 -5 -6 -7 -1 0 1 3 0 -2 2 -3 -1 3 -9 -4 -1 -3 -1 -2 -2 -1 -3 -4 -3 -2 -2 -1 -1 -3 -4 0
-1 -1 -1 -0 -0 -1 -1 -2 -1 -1 -0 0 1 0 0 0 -0 -8 -9 2 2 3 3 2 -9 -14 -10 -7 2 -7 -8 -2 -3 -1 -1 0 -2 -4 -3 -2 -2 -2 -1 -2 -2 -3 -3
-1 -1 -1 -1 -1 -2 -2 -1 -2 -1 -1 -0 -0 -0 0 0 -1 -6 -2 3 1 4 4 -3 -1 -7 -7 -3 3 -15 -8 -5 -3 -2 -1 -1 -3 -3 -2 -2 -2 -1 -2 -2 -1 -1 1
-2 -1 -1 -1 -1 -2 -2 -2 -1 -1 -1 -0 1 -0 -0 -1 -1 -4 2 2 1 4 -13 -17 -5 -9 -5 -4 -9 -5 -11 -5 -3 -1 -0 1 -0 -1 -1 -1 -2 -1 -2 -1 -0 -1 -1
-2 -2 -2 -2 -2 -2 -2 -2 -1 -1 -0 -0 1 -0 -1 -0 1 -1 -7 -4 4 5 0 -6 -6 -2 -2 -4 -6 -3 -3 -4 -6 -3 -2 -1 -2 -2 -2 -2 -2 -2 -1 -0 0 1 4
-2 -2 -2 -2 -3 -2 -2 -2 -2 -2 -1 0 1 -0 -0 -0 -0 -1 0 2 5 4 -6 -11 -5 -3 -4 -3 -5 -7 -2 -2 -1 1 -0 -1 -0 -2 -3 -2 -2 -1 -0 4 4 4 4
-2 -2 -2 -3 -4 -3 -3 -4 -2 -2 -1 0 1 1 0 -0 -1 -1 -1 4 5 -1 -2 -8 -9 -10 -3 -5 -6 -7 -4 -4 -3 -2 -1 -0 1 -2 -2 -1 -0 0 0 4 6 5 4
-2 -2 -3 -4 -5 -4 -3 -3 -2 -1 -0 1 2 2 1 -0 -1 -1 0 4 2 -0 -4 -2 -6 -9 -6 -6 -0 -4 -4 -4 -5 -2 0 0 -1 -3 -4 -3 -2 0 1 -1 2 4 7
-3 -3 -4 -5 -6 -4 -3 -3 -2 0 0 1 2 2 2 0 -0 -0 1 2 1 -1 -2 -2 -3 -5 -5 -5 -2 0 3 0 -3 -4 -3 -1 2 -1 -3 -3 -3 -2 -1 2 4 5 7
-3 -5 -5 -6 -5 -5 -4 -3 -1 0 1 1 2 2 1 1 1 1 0 -0 -1 -2 -2 -0 -1 -4 -2 -2 -2 -1 1 -2 0 3 -2 -2 -1 -0 -2 -1 -1 -0 1 2 2 4 4
-6 -7 -6 -6 -6 -5 -4 -3 -2 -1 1 1 2 2 2 1 1 0 -1 -3 -3 -3 -3 -2 -1 -1 -1 -3 -3 -2 -1 -3 3 4 5 2 1 2 -0 -3 -3 -2 0 1 4 5 5
-6 -6 -5 -5 -5 -5 -4 -3 -2 -2 1 2 2 1 2 1 1 1 -2 -2 -2 -1 -2 -2 -1 -1 -4 -3 -3 -3 -1 -1 3 5 5 5 6 5 2 -0 -2 -2 -2 -1 2 3 5
-6 -6 -5 -5 -5 -4 -3 -2 -2 -2 0 1 0 1 1 1 0 -1 -0 -1 -1 -3 -2 -2 -1 -2 -2 -1 -2 -2 -1 -3 -1 5 4 5 6 7 7 3 0 0 -1 -2 1 4 3
-5 -5 -4 -5 -4 -3 -2 -1 -1 -1 -0 0 -0 -0 1 2 1 -0 -1 -1 -1 -2 -2 -2 -2 -2 -1 1 -1 -1 -2 -0 -0 3 5 5 7 7 6 5 3 2 0 -1 -1 1 3
-5 -4 -3 -3 -3 -3 -3 -2 -1 -1 0 1 -1 0 1 0 1 0 -0 -0 -2 -2 -2 -0 0 -1 -2 -1 -1 -1 -2 -3 -0 2 5 5 6 6 5 4 4 4 -0 -1 -0 -0 1
-3 -3 -3 -3 -3 -2 -2 -2 -2 -1 -0 0 -0 0 1 1 1 2 0 -1 -1 -2 -2 -4 -1 -1 -1 -2 -4 -4 -4 -3 1 5 4 5 5 6 5 5 4 4 3 0 -2 -2 1
-3 -2 -2 -2 -1 -1 -1 -1 -1 -0 -0 -0 0 1 1 2 1 1 -0 -1 -1 -2 -2 -2 -2 -1 -2 -3 -2 -1 2 2 3 5 4 5 5 5 5 4 6 4 -0 0 -1 -1 -0
-2 -2 -1 -1 -1 -1 -1 -0 -0 -0 -0 -0 0 1 1 1 1 0 0 -0 -2 -2 -2 -3 -4 -3 -4 -2 -1 0 0 2 3 5 5 3 4 6 5 5 3 0 1 1 2 1 -2
-1 -1 -1 -1 -0 -1 -0 -0 -0 -0 -0 -0 0 0 1 1 2 1 0 -1 1 -1 -1 -2 -2 -2 -1 -1 -0 3 1 -0 4 5 5 5 4 4 6 6 5 -2 -1 -4 1 4 -1
-3 -2 -2 -2 -2 -2 -2 -2 -1 -0 -0 -0 -0 -0 0 -0 1 1 1 0 -1 -1 -1 -2 -2 -1 -2 -1 2 2 2 -2 -1 5 5 5 5 6 6 5 5 2 4 4 8 5 4
-2 -2 -1 -1 -2 -2 -2 -1 -1 -1 -1 -0 0 -0 0 -0 0 1 2 0 -1 -2 -1 -2 -1 -0 -0 0 1 1 0 1 0 1 3 4 4 4 4 5 5 3 3 6 4 4 3
-1 -0 -0 -1 0 -0 -2 -1 -1 -2 -1 -1 -1 -0 -0 -0 -0 -2 -0 1 1 -2 -2 -2 -2 -0 -0 0 0 -0 -0 -1 1 2 -0 3 1 3 3 3 1 1 -0 -1 0 4 3

GFSGBSN_850_dewp_069.txt.gz
Dewpoint
1 1 1 1 0 1 0 1 0 0 -1 -2 -1 -4 -9 -13 -13 -10 -10 -12 -13 -12 -11 -9 -19 -24 -25 -20 -30 -30 -6 -2 2 -1 -2 -6 -4 -4 -4 -7 -8 -6 -7 -8 -8 -6 -4
1 1 1 1 2 2 2 2 1 0 -1 -3 -4 -6 -9 -12 -13 -14 -16 -15 -14 -12 -12 -12 -12 -21 -14 -9 -23 -23 -25 -9 -8 -3 -6 -3 -8 -8 -6 -8 -7 -6 -7 -6 -4 -5 -4
1 1 1 1 1 1 1 1 1 1 1 0 -2 -5 -6 -8 -11 -12 -15 -18 -17 -16 -14 -12 -12 -9 -9 -27 -28 -29 -29 -26 -9 -7 -10 -7 -5 -7 -5 -5 -6 -5 -3 -5 -5 -6 -3
0 1 1 1 1 1 1 1 1 1 0 -0 -3 -4 -3 -2 -2 -4 -8 -16 -18 -18 -17 -14 -12 -6 -6 -16 -30 -30 -29 -27 -17 -1 -4 -3 -4 -5 -5 -6 -4 -3 -4 -3 -7 -3 1
0 0 0 0 0 0 1 1 0 1 0 -1 -0 0 0 -1 -1 -1 -2 -6 -12 -16 -10 -10 -9 -8 -10 -17 -22 -8 -12 -17 -24 -9 -1 -2 -1 -2 -4 -4 -4 -2 -3 -3 -5 -6 2
-0 -0 0 -0 0 -0 0 0 0 0 0 -0 -1 -0 -1 -1 -1 -0 -1 -5 -12 -4 -2 -7 2 -2 -14 -15 -12 -0 -1 -0 -6 -14 -1 -3 -2 -1 -2 -3 -5 -5 -1 -2 -4 -4 -3
-0 -1 -0 -0 -0 -0 -0 0 0 -0 -1 -0 -1 -1 -2 -1 0 0 -1 -6 -7 -1 -1 -1 -0 -4 -9 -7 -8 -3 -1 -1 -3 -5 -2 1 -1 2 -1 -2 -5 -4 -3 -3 -4 -5 -5
-1 -1 -1 -1 -1 -1 -0 -0 -0 -1 -1 -2 -2 -1 -2 -0 -0 -1 -1 1 1 1 2 -1 -5 -4 -7 -6 -0 -1 -0 -4 -2 -1 -3 -0 1 -0 -2 -3 -3 -3 -2 -2 -3 -4 -4
-2 -1 -1 -1 -1 -1 -1 -1 -2 -1 -2 -2 -3 -2 -2 -0 -0 -1 -3 1 2 -1 3 1 1 0 -1 -4 -2 -8 -3 -2 -2 -2 -2 -4 -3 -2 -1 -1 -1 -2 -1 -2 -3 -4 -4
-2 -2 -2 -2 -2 -2 -1 -2 -1 -1 -3 -3 -2 -1 -2 -0 -1 -1 2 1 1 -1 3 -2 0 -2 -3 -3 -1 -9 -8 -8 -1 -1 -1 -3 -6 -1 -2 -1 -2 -0 -3 -3 -2 -2 -4
-2 -3 -2 -2 -2 -2 -2 -3 -3 -3 -3 -4 -2 -1 -1 -1 1 0 -1 -1 -0 2 -5 -12 -3 -6 -4 -5 -7 -2 -6 -6 -8 -2 -1 -0 -0 -1 -1 -2 -3 -3 -2 -2 -2 -2 -1
-3 -3 -3 -3 -3 -3 -2 -2 -2 -3 -3 -2 -3 -2 -1 -0 1 -0 -1 -2 -4 2 -1 -7 -5 -2 -0 -2 -4 -1 -2 -4 -7 -4 -1 -2 -2 -2 -4 -3 -3 -3 -2 -1 1 1 3
-4 -3 -4 -3 -3 -3 -3 -2 -3 -4 -3 -3 -3 -2 -1 1 1 0 -0 -3 3 2 -4 -5 -4 -5 -5 -2 -2 -3 -1 -3 -4 -3 1 -0 -2 -2 -3 -2 -2 -3 -0 2 5 5 4
-4 -4 -4 -2 -2 -4 -3 -3 -3 -4 -4 -3 -4 -2 -2 1 2 1 -0 1 2 -1 -0 -4 -4 -4 -3 -4 -3 -4 -2 -2 -4 -3 -4 0 0 -1 -1 -1 -0 -0 -0 3 3 5 3
-4 -4 -5 -3 -4 -4 -4 -3 -3 -5 -5 -3 -3 -2 -1 -1 1 1 -1 1 -1 -2 -2 -1 -3 -5 -4 -4 -3 -3 -4 -3 -5 -4 -1 1 -2 -4 -2 -2 -1 1 2 -0 2 3 5
-3 -4 -3 -5 -3 -3 -3 -4 -4 -6 -5 -3 -2 -1 -1 -1 0 1 1 -1 -1 -2 -2 -1 -1 -3 -2 -3 -3 -1 2 2 4 -1 -3 -0 1 -2 -3 -3 -2 -0 -1 3 3 4 4
-5 -3 -6 -4 -4 -4 -5 -4 -5 -6 -6 -3 -2 -0 -1 -1 -0 1 1 -0 -4 -6 -5 -1 0 0 -1 -1 -3 -5 1 1 2 3 -1 -2 1 0 -2 -1 -0 0 1 2 1 3 3
-5 -5 -3 -4 -5 -5 -6 -6 -7 -6 -6 -4 -2 0 -0 -0 1 -0 1 -2 -4 -5 -3 -2 -1 -1 -1 -2 -3 -3 -0 1 -3 3 4 4 2 2 -1 -3 -3 -2 -0 1 4 3 5
-5 -6 -6 -4 -5 -5 -6 -6 -6 -6 -6 -4 -1 -0 -2 1 1 1 1 0 -4 -2 -3 -2 -1 -1 -2 -2 -2 -4 -1 -2 -3 -2 4 3 5 6 3 1 3 4 2 2 2 2 3
-5 -5 -5 -5 -4 -4 -7 -6 -6 -5 -5 -3 -1 -0 0 1 1 -1 1 0 -1 -3 -3 -2 -1 -2 -1 -1 -1 -1 -1 -3 -4 -4 -4 5 4 7 8 7 6 6 4 3 3 5 3
-4 -5 -4 -5 -5 -6 -7 -6 -6 -5 -5 -4 -2 -1 0 0 0 1 -0 -0 -1 -2 -3 -2 -1 -1 -1 -0 -1 -1 -2 -2 -4 -4 4 4 4 4 3 3 5 4 4 2 0 2 5
-6 -7 -5 -5 -6 -7 -6 -6 -6 -5 -6 -3 -2 -1 -0 -0 1 1 0 2 -1 -2 -2 -2 -1 -1 -1 -1 -2 -3 -3 -3 -3 -1 0 0 5 6 6 4 4 4 3 1 0 2 2
-2 -3 -8 -9 -8 -7 -6 -7 -7 -6 -4 -2 -2 -1 -0 -2 -0 2 1 -0 0 -2 -2 -3 -2 -2 -1 -1 -2 -3 -3 -3 -3 -2 -1 0 5 5 5 4 3 3 2 1 1 -0 1
-2 -2 -4 -6 -5 -3 -2 -2 -3 -4 -4 -3 -2 -1 -1 -1 1 1 2 -0 -1 -2 -2 -2 -3 -1 -2 -2 -1 -2 -1 -1 -2 -1 -2 -0 2 4 5 3 4 -4 -2 -1 1 -0 -0
-3 -3 -3 -3 -2 -2 -2 -2 -2 -2 -2 -2 -1 -1 -0 -1 -2 0 1 1 -1 -2 -1 -2 -2 -3 -2 -1 3 2 0 1 2 -0 -0 -1 1 5 5 4 1 -2 -4 -3 -0 -1 2
-2 -2 -2 -2 -2 -2 -1 -1 -1 -2 -2 -2 -2 -2 -0 -0 -0 -2 2 1 0 1 1 -1 -2 0 -0 2 3 2 1 -0 0 2 2 2 1 4 5 5 4 -2 -0 3 0 1 2
-3 -2 -2 -2 -2 -2 -2 -1 -1 -1 -2 -2 -1 -2 -0 -0 -0 -1 -0 1 0 -0 1 -0 -0 1 1 3 2 2 0 -1 1 2 3 3 4 4 5 4 3 0 -1 4 3 2 2
-2 -3 -3 -3 -2 -1 -2 -2 -1 -1 -2 -2 -2 -1 -1 -1 -0 0 -1 -0 2 1 1 -0 1 1 2 2 2 1 1 0 -1 0 3 2 4 4 3 5 4 -1 2 2 -2 -2 -0
-1 -1 -1 -1 -1 -2 -2 -2 -1 -1 -1 -1 -1 -1 -1 -0 -0 -1 -1 -0 -2 -3 -0 -0 -1 -0 0 1 0 -0 1 0 0 1 0 1 2 3 3 2 0 1 2 -1 1 2 1

GFSGBSN_850_dewp_072.txt.gz
Dewpoint
1 1 1 1 1 1 1 1 1 1 -1 -1 -4 -7 -8 -11 -12 -14 -14 -16 -16 -16 -16 -14 -13 -12 -9 -5 -16 -21 -29 -4 -3 -3 -4 -4 -5 -7 -7 -9 -8 -6 -11 -10 -9 -8 -8
1 1 1 1 1 1 1 1 1 1 1 1 -1 -5 -8 -9 -11 -12 -14 -16 -18 -18 -17 -17 -16 -13 -1 -3 -16 -23 -23 -12 0 -0 -2 -4 -6 -6 -7 -8 -8 -9 -9 -10 -10 -8 -7
1 1 1 1 1 1 1 1 1 1 1 1 0 -3 -6 -6 -4 -7 -11 -15 -16 -16 -18 -19 -17 -11 0 -6 -9 -14 -26 -28 -19 -7 -2 -4 -4 -6 -7 -6 -7 -8 -7 -9 -9 -8 -8
-1 0 0 0 -0 0 0 0 1 1 1 0 0 -2 -2 -2 -3 -6 -14 -17 -17 -14 -17 -17 -13 -4 -1 -17 -12 -13 -20 -27 -25 -12 -6 -5 -5 -5 -5 -6 -6 -6 -6 -5 -10 -10 -5
-0 -1 -0 -0 -0 -0 -0 -0 0 0 1 0 -0 -1 -1 -1 -3 -5 -7 -15 -13 -13 -12 -9 -5 -0 -5 -10 -15 -15 -18 -13 -13 -10 -8 -2 -2 -4 -4 -4 -5 -5 -5 -5 -7 -8 -5
-1 -0 -0 -2 -0 -1 -1 -0 -1 -0 0 -0 -0 -0 -1 -2 -3 -4 -5 -10 -9 -5 1 -3 3 1 -6 -11 -4 -2 -0 -1 -5 -9 -3 -1 -2 -1 -2 -3 -1 -3 -4 -6 -6 -8 -4
-1 -1 -1 -1 -1 -1 -1 -1 -1 -1 -1 -1 -1 -2 -3 -2 -3 -3 -5 -1 -2 -0 -1 -1 -3 -2 -6 -2 -6 -3 0 0 -2 -7 -4 -1 -0 1 -1 -3 -4 -5 -6 -6 -9 -8 -5
-2 -2 -2 -1 -1 -1 -1 -1 -1 -1 -1 -1 -1 -2 -2 -2 -3 -2 -2 1 1 0 1 -1 -4 -3 -4 -3 -2 -3 -1 -2 -1 -5 -9 -0 1 -3 -3 -2 -3 -4 -5 -5 -7 -6 -5
-3 -3 -2 -2 -2 -2 -2 -1 -1 -1 -1 -2 -3 -3 -2 -1 -1 -1 1 1 1 1 1 -2 -1 -1 -1 -1 -4 -6 1 -3 -2 -2 -6 -4 -4 -4 -3 -1 -2 -3 -3 -4 -5 -7 -6
-3 -3 -2 -2 -2 -2 -2 -2 -2 -3 -2 -2 -3 -3 -1 -1 0 0 1 0 -0 -1 2 -7 -3 -2 -0 -2 -3 -6 -5 -3 -4 -4 -4 -4 -7 -5 -2 -2 -3 -2 -5 -4 -4 -3 -3
-3 -3 -2 -2 -2 -2 -3 -2 -2 -3 -2 -3 -4 -4 -2 -1 1 1 1 -1 -1 3 -6 -12 -5 -4 -3 -4 -8 -1 -5 -8 -7 -5 -2 -3 -4 -6 -5 -4 -6 -4 -6 -4 -3 -3 -3
-2 -2 -3 -3 -3 -2 -3 -3 -3 -3 -3 -3 -3 -2 -2 -0 0 1 0 -2 0 4 -7 -10 -6 -4 -1 -4 -5 -2 -4 -8 -9 -8 -6 -4 -4 -3 -7 -5 -4 -4 -3 -3 -3 -2 1
-4 -4 -3 -4 -4 -4 -2 -3 -3 -3 -4 -4 -3 -3 -2 -0 1 1 -0 -0 1 -4 -8 -7 -5 -6 -6 -6 -3 -5 -1 -3 -6 -3 -2 -4 -4 -4 -4 -4 -5 -4 -3 2 3 4 3
-2 -3 -2 -4 -4 -3 -1 -3 -5 -4 -4 -4 -4 -3 -2 -0 -1 0 2 -0 1 -8 -4 -5 -5 -5 -4 -5 -3 -4 -2 -2 -7 -7 -6 -1 0 -3 -3 -3 -2 -3 -2 1 3 4 2
-4 -5 -5 -4 -5 -4 -2 -5 -4 -4 -4 -6 -4 -2 -3 -0 -2 0 1 2 -7 -6 -5 -2 -5 -6 -5 -5 -3 -3 1 2 -5 -6 -6 -4 -4 -5 -5 -3 -3 -1 0 -3 0 2 4
-5 -3 -5 -3 -5 -6 -6 -3 -2 -5 -5 -6 -3 -1 -1 0 -2 1 2 -2 -5 -2 -3 -2 -3 -3 -3 -4 -5 -1 1 0 2 -1 -6 -2 -3 -6 -5 -4 -3 -2 -3 2 2 5 5
-7 -7 -7 -6 -3 -5 -3 -3 -3 -6 -6 -6 -3 -1 -2 -3 -1 1 1 -1 -5 -6 -5 -2 -1 -1 -2 -3 -5 -5 2 -1 -3 1 -1 -3 0 1 -2 -2 -1 -1 1 -0 -0 1 3
-6 -6 -4 -6 -5 -6 -6 -5 -6 -7 -7 -6 -1 -1 -2 -1 1 1 1 -2 -4 -6 -6 -4 -2 -2 -2 -3 -3 -6 -3 -2 -4 -3 2 2 2 1 -0 -3 -4 -3 -1 -0 3 2 2
-5 -6 -5 -6 -7 -5 -2 -4 -6 -7 -8 -2 -2 -3 -2 0 1 1 1 -1 -4 -5 -6 -5 -3 -2 -3 -3 -3 -4 -3 -3 -4 -5 -1 1 3 -0 -3 -2 -1 -2 0 0 1 2 3
-5 -5 -5 -6 -6 -6 -5 -4 -5 -7 -6 -3 -2 -1 -2 0 0 -1 -1 -1 1 -4 -5 -4 -4 -2 -2 -2 -4 -3 -4 -6 -5 -6 -2 1 1 5 3 2 3 5 3 2 2 4 2
-6 -6 -6 -6 -5 -5 -5 -4 -4 -8 -5 -3 -2 -2 -4 0 -0 2 -3 -3 -2 -3 -4 -5 -4 -3 -3 -1 -2 -2 -4 -4 -6 -3 -2 4 1 0 1 -1 -0 0 0 -0 1 0 3
-4 -3 -4 -4 -6 -5 -5 -4 -5 -8 -5 -2 -2 -4 -2 -2 -3 2 2 1 -1 -4 -4 -3 -2 -3 -3 -1 -2 -3 -4 -4 -3 -4 -2 -0 0 3 0 -2 -1 0 -2 -2 -2 -2 0
-2 -2 -2 -2 -3 -7 -5 -5 -6 -7 -5 -2 -3 -2 -2 -3 -4 -2 -1 -2 1 -3 -4 -5 -4 -3 -1 -2 -3 -3 -3 -3 -3 -2 -2 -1 1 1 1 1 1 2 -0 -3 -3 -4 -1
-1 -1 -2 -2 -1 -2 -9 -7 -7 -7 -6 -3 -2 -2 -2 -3 -3 -3 -6 -3 -0 -2 -2 -4 -4 -3 -2 -1 -1 -1 -1 -2 -2 -2 -3 -1 1 2 3 3 3 -4 -5 -4 -2 -4 -4
-1 -2 -1 -2 -2 -2 -4 -7 -6 -5 -6 -4 -3 -2 -2 -2 -5 -6 -4 1 -1 -2 -1 -3 -4 -3 0 1 1 0 0 0 -1 -1 -1 -2 -1 2 2 0 -3 -5 -6 -6 -6 -6 -2
-2 -2 -2 -2 -3 -2 -2 -2 -2 -2 -2 -3 -3 -3 -1 -0 -2 -7 -6 -4 1 0 -1 -2 0 -0 1 2 1 0 0 -2 -1 1 -2 -1 -1 1 3 1 2 -3 -1 -0 -1 -3 -2
-2 -3 -2 -4 -2 -2 -2 -2 -2 -1 -1 -2 -2 -3 -2 -2 -3 -0 -3 -5 -1 2 0 -1 2 2 1 3 2 1 -0 -3 -1 1 4 3 2 4 3 3 0 -3 -5 1 1 2 -2
-2 -2 -2 -2 -3 -2 -2 -2 -1 -1 -1 -1 -2 -2 -2 -2 -4 -4 -2 -4 -3 -2 -1 1 2 1 1 3 1 -1 -0 -2 -3 -2 2 3 2 3 3 2 4 -2 -0 1 1 -1 -2
-1 -0 -2 -2 -1 -1 -3 -2 -1 -1 -1 -1 -1 -2 -1 -1 -1 -1 -2 -1 -1 -2 -2 1 -0 1 -0 1 -1 -1 0 -1 -3 -1 -4 2 -0 1 -0 -0 -1 0 -0 -2 2 2 1